| time (UTC) | temp F | wind direction | speed MPH | gust MPH | rain 1hr in | rain 24hr in | rain mn in | humidity % | barometer mb |
| 20260509185800 | 50 | 32 | 8.0 | 19.0 | 0.00 | 0.03 | 0.03 | 90 | |
| 20260509185700 | 50 | 33 | 8.0 | 19.0 | 0.00 | 0.03 | 0.03 | 90 | |
| 20260509185600 | 50 | 34 | 7.0 | 19.0 | 0.00 | 0.03 | 0.03 | 90 | |
| 20260509185521 | 50 | 35 | 6.0 | 18.0 | 0.00 | 0.03 | 0.03 | 90 | |
| 20260509185400 | 50 | 38 | 5.0 | 13.0 | 0.00 | 0.03 | 0.03 | 90 | |
| 20260509185300 | 50 | 38 | 5.0 | 10.0 | 0.00 | 0.03 | 0.03 | 90 | |
| 20260509185201 | 50 | 39 | 6.0 | 11.0 | 0.00 | 0.03 | 0.03 | 90 | |
| 20260509185100 | 50 | 39 | 6.0 | 11.0 | 0.00 | 0.03 | 0.03 | 90 | |
| 20260509185000 | 50 | 38 | 6.0 | 11.0 | 0.00 | 0.03 | 0.03 | 90 | |
| 20260509184900 | 50 | 37 | 6.0 | 11.0 | 0.00 | 0.03 | 0.03 | 90 | |
| 20260509184821 | 50 | 36 | 7.0 | 11.0 | 0.00 | 0.03 | 0.03 | 90 | |
| 20260509184700 | 50 | 34 | 7.0 | 11.0 | 0.00 | 0.03 | 0.03 | 90 | |
| 20260509184621 | 50 | 34 | 7.0 | 11.0 | 0.00 | 0.03 | 0.03 | 90 | |
| 20260509184521 | 50 | 34 | 7.0 | 11.0 | 0.00 | 0.03 | 0.03 | 90 | |
| 20260509184400 | 50 | 34 | 7.0 | 11.0 | 0.01 | 0.03 | 0.03 | 90 | |
| 20260509184300 | 50 | 34 | 7.0 | 11.0 | 0.01 | 0.03 | 0.03 | 90 | |
| 20260509184200 | 50 | 33 | 7.0 | 11.0 | 0.01 | 0.03 | 0.03 | 90 | |
| 20260509184100 | 50 | 32 | 7.0 | 11.0 | 0.01 | 0.03 | 0.03 | 90 | |
| 20260509184000 | 50 | 33 | 6.0 | 11.0 | 0.01 | 0.03 | 0.03 | 90 | |
| 20260509183921 | 50 | 33 | 6.0 | 11.0 | 0.01 | 0.03 | 0.03 | 90 | |
| 20260509183800 | 50 | 34 | 6.0 | 11.0 | 0.01 | 0.03 | 0.03 | 90 | |
| 20260509183700 | 50 | 34 | 6.0 | 9.0 | 0.01 | 0.03 | 0.03 | 90 | |
| 20260509183621 | 50 | 33 | 6.0 | 9.0 | 0.01 | 0.03 | 0.03 | 90 | |
| 20260509183521 | 50 | 34 | 6.0 | 9.0 | 0.01 | 0.03 | 0.03 | 90 | |
| 20260509183421 | 50 | 35 | 7.0 | 10.0 | 0.01 | 0.03 | 0.03 | 90 | |
| 20260509183300 | 50 | 35 | 7.0 | 11.0 | 0.01 | 0.03 | 0.03 | 90 | |
| 20260509183200 | 50 | 36 | 7.0 | 11.0 | 0.01 | 0.03 | 0.03 | 90 | |
| 20260509183100 | 50 | 36 | 7.0 | 11.0 | 0.01 | 0.03 | 0.03 | 90 | |
| 20260509183023 | 50 | 35 | 7.0 | 11.0 | 0.01 | 0.03 | 0.03 | 90 | |
| 20260509182900 | 50 | 34 | 8.0 | 12.0 | 0.01 | 0.03 | 0.03 | 90 | |
| 20260509182821 | 50 | 34 | 8.0 | 12.0 | 0.01 | 0.03 | 0.03 | 90 | |
| 20260509182700 | 50 | 34 | 8.0 | 12.0 | 0.01 | 0.03 | 0.03 | 90 | |
| 20260509182600 | 50 | 35 | 8.0 | 12.0 | 0.01 | 0.03 | 0.03 | 90 | |
| 20260509182500 | 50 | 34 | 8.0 | 12.0 | 0.01 | 0.03 | 0.03 | 90 | |
| 20260509182400 | 50 | 34 | 8.0 | 12.0 | 0.01 | 0.03 | 0.03 | 90 | |
| 20260509182300 | 50 | 34 | 8.0 | 12.0 | 0.01 | 0.03 | 0.03 | 90 | |
| 20260509182202 | 50 | 33 | 8.0 | 12.0 | 0.01 | 0.03 | 0.03 | 90 | |
| 20260509182100 | 50 | 34 | 8.0 | 12.0 | 0.01 | 0.03 | 0.03 | 90 | |
| 20260509182000 | 50 | 34 | 8.0 | 13.0 | 0.01 | 0.03 | 0.03 | 90 | |
| 20260509181900 | 50 | 34 | 8.0 | 13.0 | 0.01 | 0.03 | 0.03 | 90 | |
| 20260509181800 | 50 | 34 | 8.0 | 13.0 | 0.01 | 0.03 | 0.03 | 90 | |
| 20260509181700 | 50 | 34 | 8.0 | 13.0 | 0.01 | 0.03 | 0.03 | 90 | |
| 20260509181600 | 50 | 34 | 8.0 | 13.0 | 0.01 | 0.03 | 0.03 | 90 | |
| 20260509181500 | 50 | 34 | 9.0 | 13.0 | 0.01 | 0.03 | 0.03 | 90 | |
| 20260509181400 | 50 | 33 | 9.0 | 13.0 | 0.01 | 0.03 | 0.03 | 90 | |
| 20260509181321 | 50 | 33 | 9.0 | 13.0 | 0.01 | 0.03 | 0.03 | 90 | |
| 20260509181221 | 50 | 33 | 9.0 | 13.0 | 0.01 | 0.03 | 0.03 | 90 | |
| 20260509181121 | 50 | 32 | 9.0 | 13.0 | 0.01 | 0.03 | 0.03 | 90 | |
| 20260509181000 | 50 | 34 | 8.0 | 13.0 | 0.01 | 0.03 | 0.03 | 90 | |
| 20260509180921 | 50 | 33 | 8.0 | 13.0 | 0.01 | 0.03 | 0.03 | 90 | |
| 20260509180800 | 50 | 34 | 8.0 | 13.0 | 0.01 | 0.03 | 0.03 | 90 | |
| 20260509180700 | 50 | 33 | 8.0 | 13.0 | 0.01 | 0.03 | 0.03 | 90 | |
| 20260509180600 | 50 | 34 | 8.0 | 13.0 | 0.01 | 0.03 | 0.03 | 90 | |
| 20260509180501 | 50 | 33 | 8.0 | 12.0 | 0.01 | 0.03 | 0.03 | 90 | |
| 20260509180401 | 50 | 32 | 8.0 | 11.0 | 0.01 | 0.03 | 0.03 | 90 | |
| 20260509180300 | 50 | 31 | 7.0 | 11.0 | 0.01 | 0.03 | 0.03 | 90 | |
| 20260509180200 | 50 | 31 | 7.0 | 11.0 | 0.01 | 0.03 | 0.03 | 90 | |
| 20260509180100 | 50 | 31 | 7.0 | 11.0 | 0.01 | 0.03 | 0.03 | 89 | |
| 20260509180001 | 50 | 30 | 7.0 | 11.0 | 0.01 | 0.03 | 0.03 | 89 | |
| 20260509175900 | 50 | 29 | 7.0 | 11.0 | 0.01 | 0.03 | 0.03 | 89 | |
| 20260509175800 | 50 | 29 | 7.0 | 11.0 | 0.01 | 0.03 | 0.03 | 89 | |
| 20260509175700 | 50 | 29 | 8.0 | 11.0 | 0.01 | 0.03 | 0.03 | 89 | |
| 20260509175600 | 50 | 29 | 8.0 | 11.0 | 0.01 | 0.03 | 0.03 | 89 | |
| 20260509175500 | 50 | 29 | 8.0 | 12.0 | 0.01 | 0.03 | 0.03 | 89 | |
| 20260509175400 | 50 | 30 | 8.0 | 13.0 | 0.01 | 0.03 | 0.03 | 89 | |
| 20260509175300 | 50 | 32 | 8.0 | 13.0 | 0.01 | 0.03 | 0.03 | 89 | |
| 20260509175200 | 50 | 33 | 8.0 | 13.0 | 0.01 | 0.03 | 0.03 | 89 | |
| 20260509175121 | 50 | 33 | 8.0 | 13.0 | 0.01 | 0.03 | 0.03 | 89 | |
| 20260509175000 | 50 | 34 | 8.0 | 13.0 | 0.01 | 0.03 | 0.03 | 90 | |
| 20260509174901 | 50 | 35 | 8.0 | 13.0 | 0.01 | 0.03 | 0.03 | 89 | |
| 20260509174800 | 50 | 36 | 8.0 | 13.0 | 0.01 | 0.03 | 0.03 | 89 | |
| 20260509174700 | 50 | 36 | 8.0 | 13.0 | 0.01 | 0.03 | 0.03 | 89 | |
| 20260509174600 | 50 | 37 | 8.0 | 13.0 | 0.01 | 0.03 | 0.03 | 90 | |
| 20260509174500 | 50 | 38 | 7.0 | 13.0 | 0.01 | 0.03 | 0.03 | 90 | |
| 20260509174400 | 50 | 39 | 7.0 | 13.0 | 0.00 | 0.02 | 0.02 | 90 | |
| 20260509174300 | 51 | 38 | 7.0 | 10.0 | 0.00 | 0.02 | 0.02 | 90 | |
| 20260509174200 | 50 | 39 | 7.0 | 10.0 | 0.00 | 0.02 | 0.02 | 90 | |
| 20260509174100 | 50 | 39 | 7.0 | 10.0 | 0.00 | 0.02 | 0.02 | 90 | |
| 20260509174000 | 51 | 39 | 7.0 | 10.0 | 0.00 | 0.02 | 0.02 | 90 | |
| 20260509173922 | 51 | 38 | 7.0 | 10.0 | 0.00 | 0.02 | 0.02 | 90 | |
| 20260509173800 | 51 | 38 | 7.0 | 11.0 | 0.00 | 0.02 | 0.02 | 90 | |
| 20260509173700 | 51 | 40 | 7.0 | 11.0 | 0.00 | 0.02 | 0.02 | 90 | |
| 20260509173621 | 51 | 40 | 7.0 | 11.0 | 0.00 | 0.02 | 0.02 | 90 | |
| 20260509173500 | 51 | 38 | 7.0 | 11.0 | 0.00 | 0.02 | 0.02 | 90 | |
| 20260509173400 | 51 | 38 | 7.0 | 12.0 | 0.00 | 0.02 | 0.02 | 90 | |
| 20260509173321 | 51 | 37 | 7.0 | 12.0 | 0.00 | 0.02 | 0.02 | 90 | |
| 20260509173200 | 51 | 38 | 7.0 | 12.0 | 0.00 | 0.02 | 0.02 | 90 | |
| 20260509173121 | 51 | 37 | 7.0 | 12.0 | 0.00 | 0.02 | 0.02 | 90 | |
| 20260509173001 | 51 | 37 | 7.0 | 12.0 | 0.00 | 0.02 | 0.02 | 90 | |
| 20260509172901 | 51 | 36 | 7.0 | 12.0 | 0.00 | 0.02 | 0.02 | 90 | |
| 20260509172800 | 51 | 37 | 7.0 | 12.0 | 0.00 | 0.02 | 0.02 | 90 | |
| 20260509172701 | 51 | 37 | 8.0 | 12.0 | 0.00 | 0.02 | 0.02 | 90 | |
| 20260509172600 | 51 | 36 | 8.0 | 12.0 | 0.00 | 0.02 | 0.02 | 90 | |
| 20260509172500 | 51 | 36 | 8.0 | 12.0 | 0.00 | 0.02 | 0.02 | 90 | |
| 20260509172400 | 51 | 37 | 7.0 | 11.0 | 0.00 | 0.02 | 0.02 | 90 | |
| 20260509172300 | 51 | 37 | 7.0 | 11.0 | 0.00 | 0.02 | 0.02 | 90 | |
| 20260509172222 | 51 | 37 | 7.0 | 11.0 | 0.00 | 0.02 | 0.02 | 90 | |
| 20260509172100 | 51 | 37 | 7.0 | 11.0 | 0.00 | 0.02 | 0.02 | 90 | |
| 20260509172000 | 51 | 37 | 7.0 | 11.0 | 0.00 | 0.02 | 0.02 | 90 | |
| 20260509171900 | 51 | 37 | 7.0 | 11.0 | 0.00 | 0.02 | 0.02 | 90 | |
| 20260509171800 | 51 | 35 | 7.0 | 11.0 | 0.00 | 0.02 | 0.02 | 90 | |
| 20260509171700 | 51 | 34 | 7.0 | 11.0 | 0.00 | 0.02 | 0.02 | 90 | |
| 20260509171601 | 51 | 33 | 7.0 | 9.0 | 0.00 | 0.02 | 0.02 | 90 | |
| 20260509171500 | 51 | 32 | 7.0 | 9.0 | 0.00 | 0.02 | 0.02 | 90 | |
| 20260509171400 | 51 | 30 | 7.0 | 9.0 | 0.01 | 0.02 | 0.02 | 90 | |
| 20260509171300 | 51 | 29 | 7.0 | 9.0 | 0.01 | 0.02 | 0.02 | 90 | |
| 20260509171200 | 51 | 26 | 7.0 | 9.0 | 0.01 | 0.02 | 0.02 | 90 | |
| 20260509171100 | 51 | 25 | 7.0 | 9.0 | 0.01 | 0.02 | 0.02 | 90 | |
| 20260509171000 | 51 | 26 | 7.0 | 9.0 | 0.01 | 0.02 | 0.02 | 90 | |
| 20260509170900 | 51 | 26 | 7.0 | 9.0 | 0.01 | 0.02 | 0.02 | 90 | |
| 20260509170800 | 51 | 26 | 7.0 | 10.0 | 0.01 | 0.02 | 0.02 | 90 | |
| 20260509170700 | 51 | 25 | 7.0 | 10.0 | 0.01 | 0.02 | 0.02 | 90 | |
| 20260509170600 | 51 | 24 | 7.0 | 10.0 | 0.01 | 0.02 | 0.02 | 90 | |
| 20260509170500 | 51 | 23 | 7.0 | 10.0 | 0.01 | 0.02 | 0.02 | 90 | |
| 20260509170400 | 51 | 24 | 7.0 | 10.0 | 0.01 | 0.02 | 0.02 | 90 | |
| 20260509170300 | 51 | 25 | 7.0 | 10.0 | 0.01 | 0.02 | 0.02 | 90 | |
| 20260509170200 | 51 | 26 | 7.0 | 10.0 | 0.01 | 0.02 | 0.02 | 91 | |
| 20260509170101 | 51 | 26 | 7.0 | 10.0 | 0.01 | 0.02 | 0.02 | 91 | |
| 20260509170001 | 51 | 25 | 7.0 | 10.0 | 0.02 | 0.02 | 0.02 | 91 | |
| 20260509165900 | 51 | 24 | 7.0 | 10.0 | 0.02 | 0.02 | 0.02 | 91 | |
| 20260509165800 | 51 | 25 | 7.0 | 10.0 | 0.02 | 0.02 | 0.02 | 91 | |
| 20260509165700 | 51 | 25 | 7.0 | 10.0 | 0.02 | 0.02 | 0.02 | 91 | |
| 20260509165600 | 51 | 27 | 7.0 | 13.0 | 0.02 | 0.02 | 0.02 | 91 | |
| 20260509165500 | 51 | 28 | 7.0 | 13.0 | 0.02 | 0.02 | 0.02 | 91 | |
| 20260509165400 | 51 | 28 | 7.0 | 13.0 | 0.02 | 0.02 | 0.02 | 91 | |
| 20260509165300 | 51 | 29 | 7.0 | 13.0 | 0.02 | 0.02 | 0.02 | 91 | |
| 20260509165200 | 51 | 28 | 7.0 | 13.0 | 0.02 | 0.02 | 0.02 | 91 | |
| 20260509165100 | 51 | 29 | 7.0 | 13.0 | 0.02 | 0.02 | 0.02 | 91 | |
| 20260509165000 | 51 | 29 | 7.0 | 13.0 | 0.02 | 0.02 | 0.02 | 90 | |
| 20260509164900 | 51 | 31 | 7.0 | 13.0 | 0.02 | 0.02 | 0.02 | 90 | |
| 20260509164821 | 51 | 32 | 6.0 | 13.0 | 0.02 | 0.02 | 0.02 | 90 | |
| 20260509164701 | 51 | 33 | 6.0 | 13.0 | 0.02 | 0.02 | 0.02 | 90 | |
| 20260509164601 | 51 | 33 | 6.0 | 11.0 | 0.02 | 0.02 | 0.02 | 90 | |
| 20260509164501 | 52 | 33 | 6.0 | 9.0 | 0.02 | 0.02 | 0.02 | 90 | |
| 20260509164400 | 52 | 33 | 6.0 | 11.0 | 0.02 | 0.02 | 0.02 | 90 | |
| 20260509164300 | 52 | 34 | 6.0 | 11.0 | 0.02 | 0.02 | 0.02 | 90 | |
| 20260509164200 | 52 | 35 | 6.0 | 11.0 | 0.02 | 0.02 | 0.02 | 90 | |
| 20260509164100 | 52 | 35 | 6.0 | 11.0 | 0.02 | 0.02 | 0.02 | 90 | |
| 20260509164000 | 52 | 36 | 6.0 | 11.0 | 0.02 | 0.02 | 0.02 | 90 | |
| 20260509163900 | 52 | 34 | 6.0 | 11.0 | 0.02 | 0.02 | 0.02 | 90 | |
| 20260509163801 | 52 | 34 | 6.0 | 11.0 | 0.02 | 0.02 | 0.02 | 90 | |
| 20260509163700 | 52 | 34 | 6.0 | 11.0 | 0.02 | 0.02 | 0.02 | 90 | |
| 20260509163600 | 52 | 34 | 6.0 | 11.0 | 0.02 | 0.02 | 0.02 | 90 | |
| 20260509163521 | 52 | 35 | 6.0 | 11.0 | 0.02 | 0.02 | 0.02 | 90 | |
| 20260509163400 | 52 | 34 | 6.0 | 11.0 | 0.02 | 0.02 | 0.02 | 90 | |
| 20260509163300 | 52 | 32 | 6.0 | 11.0 | 0.02 | 0.02 | 0.02 | 90 | |
| 20260509163200 | 52 | 32 | 6.0 | 11.0 | 0.02 | 0.02 | 0.02 | 89 | |
| 20260509163101 | 52 | 31 | 6.0 | 11.0 | 0.02 | 0.02 | 0.02 | 89 | |
| 20260509163000 | 52 | 31 | 6.0 | 11.0 | 0.02 | 0.02 | 0.02 | 89 | |
| 20260509162900 | 52 | 32 | 6.0 | 11.0 | 0.02 | 0.02 | 0.02 | 89 | |
| 20260509162800 | 52 | 32 | 6.0 | 11.0 | 0.02 | 0.02 | 0.02 | 89 | |
| 20260509162722 | 52 | 33 | 6.0 | 11.0 | 0.02 | 0.02 | 0.02 | 89 | |
| 20260509162622 | 52 | 33 | 6.0 | 11.0 | 0.02 | 0.02 | 0.02 | 89 | |
| 20260509162500 | 52 | 33 | 6.0 | 11.0 | 0.02 | 0.02 | 0.02 | 89 | |
| 20260509162400 | 52 | 33 | 6.0 | 11.0 | 0.02 | 0.02 | 0.02 | 89 | |
| 20260509162300 | 52 | 34 | 6.0 | 10.0 | 0.02 | 0.02 | 0.02 | 89 | |
| 20260509162200 | 52 | 35 | 6.0 | 11.0 | 0.02 | 0.02 | 0.02 | 89 | |
| 20260509162121 | 52 | 35 | 6.0 | 11.0 | 0.02 | 0.02 | 0.02 | 89 | |
| 20260509162000 | 52 | 35 | 6.0 | 11.0 | 0.02 | 0.02 | 0.02 | 89 | |
| 20260509161922 | 52 | 34 | 7.0 | 11.0 | 0.02 | 0.02 | 0.02 | 89 | |
| 20260509161800 | 52 | 33 | 7.0 | 11.0 | 0.02 | 0.02 | 0.02 | 89 | |
| 20260509161701 | 52 | 32 | 7.0 | 11.0 | 0.02 | 0.02 | 0.02 | 88 | |
| 20260509161600 | 52 | 32 | 7.0 | 11.0 | 0.02 | 0.02 | 0.02 | 88 | |
| 20260509161500 | 52 | 33 | 7.0 | 11.0 | 0.02 | 0.02 | 0.02 | 88 | |
| 20260509161421 | 52 | 33 | 7.0 | 11.0 | 0.02 | 0.02 | 0.02 | 88 | |
| 20260509161301 | 52 | 33 | 7.0 | 11.0 | 0.02 | 0.02 | 0.02 | 88 | |
| 20260509161201 | 52 | 33 | 7.0 | 10.0 | 0.02 | 0.02 | 0.02 | 88 | |
| 20260509161101 | 52 | 34 | 7.0 | 10.0 | 0.02 | 0.02 | 0.02 | 88 | |
| 20260509161000 | 53 | 35 | 7.0 | 12.0 | 0.02 | 0.02 | 0.02 | 88 | |
| 20260509160900 | 53 | 35 | 7.0 | 12.0 | 0.02 | 0.02 | 0.02 | 88 | |
| 20260509160821 | 53 | 35 | 7.0 | 12.0 | 0.02 | 0.02 | 0.02 | 88 | |
| 20260509160700 | 53 | 33 | 7.0 | 12.0 | 0.02 | 0.02 | 0.02 | 88 | |
| 20260509160600 | 53 | 31 | 7.0 | 14.0 | 0.02 | 0.02 | 0.02 | 88 | |
| 20260509160501 | 53 | 29 | 8.0 | 14.0 | 0.02 | 0.02 | 0.02 | 87 | |
| 20260509160400 | 53 | 28 | 8.0 | 14.0 | 0.02 | 0.02 | 0.02 | 87 | |
| 20260509160300 | 53 | 27 | 8.0 | 14.0 | 0.02 | 0.02 | 0.02 | 87 | |
| 20260509160200 | 53 | 26 | 8.0 | 14.0 | 0.02 | 0.02 | 0.02 | 87 | |
| 20260509160022 | 53 | 25 | 8.0 | 14.0 | 0.01 | 0.01 | 0.02 | 87 | |
| 20260509155901 | 53 | 27 | 8.0 | 14.0 | 0.01 | 0.01 | 0.01 | 86 | |
| 20260509155800 | 53 | 29 | 7.0 | 14.0 | 0.01 | 0.01 | 0.01 | 86 | |
| 20260509155722 | 53 | 30 | 7.0 | 14.0 | 0.01 | 0.01 | 0.01 | 86 | |
| 20260509155600 | 54 | 34 | 7.0 | 11.0 | 0.01 | 0.01 | 0.01 | 86 | |
| 20260509155500 | 54 | 37 | 6.0 | 11.0 | 0.01 | 0.01 | 0.01 | 86 | |
| 20260509155401 | 54 | 40 | 6.0 | 11.0 | 0.01 | 0.01 | 0.01 | 86 | |
| 20260509155300 | 54 | 44 | 6.0 | 10.0 | 0.01 | 0.01 | 0.01 | 86 | |
| 20260509155221 | 54 | 46 | 6.0 | 10.0 | 0.01 | 0.01 | 0.01 | 86 | |
| 20260509155122 | 54 | 48 | 6.0 | 10.0 | 0.01 | 0.01 | 0.01 | 85 | |
| 20260509155001 | 54 | 51 | 6.0 | 10.0 | 0.01 | 0.01 | 0.01 | 85 | |
| 20260509154900 | 54 | 52 | 7.0 | 10.0 | 0.01 | 0.01 | 0.01 | 85 | |
| 20260509154801 | 54 | 51 | 7.0 | 11.0 | 0.01 | 0.01 | 0.01 | 85 | |
| 20260509154700 | 54 | 51 | 7.0 | 12.0 | 0.01 | 0.01 | 0.01 | 84 | |
| 20260509154600 | 54 | 51 | 7.0 | 12.0 | 0.01 | 0.01 | 0.01 | 84 | |
| 20260509154523 | 54 | 50 | 8.0 | 12.0 | 0.00 | 0.00 | 0.00 | 84 | |
| 20260509154421 | 54 | 49 | 8.0 | 12.0 | 0.00 | 0.00 | 0.00 | 84 | |
| 20260509154301 | 54 | 46 | 8.0 | 14.0 | 0.00 | 0.00 | 0.00 | 84 | |
| 20260509154200 | 54 | 44 | 8.0 | 14.0 | 0.00 | 0.00 | 0.00 | 84 | |
| 20260509154101 | 54 | 42 | 8.0 | 14.0 | 0.00 | 0.00 | 0.00 | 84 | |
| 20260509154021 | 54 | 41 | 8.0 | 14.0 | 0.00 | 0.00 | 0.00 | 84 | |
| 20260509153900 | 54 | 38 | 8.0 | 14.0 | 0.00 | 0.00 | 0.00 | 84 | |
| 20260509153822 | 54 | 37 | 8.0 | 14.0 | 0.00 | 0.00 | 0.00 | 84 | |
| 20260509153700 | 54 | 35 | 8.0 | 14.0 | 0.00 | 0.00 | 0.00 | 84 | |
| 20260509153600 | 54 | 33 | 9.0 | 14.0 | 0.00 | 0.00 | 0.00 | 84 | |
| 20260509153500 | 54 | 32 | 9.0 | 14.0 | 0.00 | 0.00 | 0.00 | 84 | |
| 20260509153401 | 54 | 32 | 9.0 | 14.0 | 0.00 | 0.00 | 0.00 | 84 | |
| 20260509153300 | 54 | 32 | 9.0 | 13.0 | 0.00 | 0.00 | 0.00 | 84 | |
| 20260509153200 | 54 | 31 | 8.0 | 13.0 | 0.00 | 0.00 | 0.00 | 84 | |
| 20260509153121 | 54 | 30 | 8.0 | 13.0 | 0.00 | 0.00 | 0.00 | 84 | |
| 20260509153000 | 54 | 30 | 8.0 | 13.0 | 0.00 | 0.00 | 0.00 | 84 | |
| 20260509152900 | 54 | 29 | 8.0 | 13.0 | 0.00 | 0.00 | 0.00 | 83 | |
| 20260509152801 | 54 | 29 | 8.0 | 13.0 | 0.00 | 0.00 | 0.00 | 83 | |
| 20260509152700 | 54 | 28 | 8.0 | 13.0 | 0.00 | 0.00 | 0.00 | 83 | |
| 20260509152621 | 54 | 28 | 8.0 | 13.0 | 0.00 | 0.00 | 0.00 | 83 | |
| 20260509152501 | 54 | 26 | 8.0 | 13.0 | 0.00 | 0.00 | 0.00 | 83 | |
| 20260509152400 | 55 | 26 | 8.0 | 13.0 | 0.00 | 0.00 | 0.00 | 83 | |
| 20260509152300 | 55 | 25 | 9.0 | 13.0 | 0.00 | 0.00 | 0.00 | 82 | |
| 20260509152201 | 55 | 25 | 9.0 | 13.0 | 0.00 | 0.00 | 0.00 | 82 | |
| 20260509152100 | 55 | 25 | 9.0 | 13.0 | 0.00 | 0.00 | 0.00 | 82 | |
| 20260509152000 | 55 | 25 | 9.0 | 13.0 | 0.00 | 0.00 | 0.00 | 81 | |
| 20260509151900 | 55 | 26 | 9.0 | 13.0 | 0.00 | 0.00 | 0.00 | 81 | |
| 20260509151800 | 55 | 26 | 9.0 | 13.0 | 0.00 | 0.00 | 0.00 | 80 | |
| 20260509151700 | 56 | 27 | 9.0 | 13.0 | 0.00 | 0.00 | 0.00 | 80 | |
| 20260509151601 | 56 | 29 | 9.0 | 13.0 | 0.00 | 0.00 | 0.00 | 79 | |
| 20260509151501 | 56 | 32 | 9.0 | 13.0 | 0.00 | 0.00 | 0.00 | 78 | |
| 20260509151401 | 56 | 34 | 9.0 | 13.0 | 0.00 | 0.00 | 0.00 | 78 | |
| 20260509151302 | 56 | 36 | 8.0 | 13.0 | 0.00 | 0.00 | 0.00 | 77 | |
| 20260509151201 | 56 | 40 | 8.0 | 14.0 | 0.00 | 0.00 | 0.00 | 77 | |
| 20260509151101 | 56 | 42 | 9.0 | 14.0 | 0.00 | 0.00 | 0.00 | 76 | |
| 20260509151000 | 57 | 44 | 9.0 | 14.0 | 0.00 | 0.00 | 0.00 | 76 | |
| 20260509150921 | 57 | 45 | 9.0 | 14.0 | 0.00 | 0.00 | 0.00 | 76 | |
| 20260509150800 | 57 | 48 | 9.0 | 15.0 | 0.00 | 0.00 | 0.00 | 75 | |
| 20260509150702 | 57 | 50 | 9.0 | 15.0 | 0.00 | 0.00 | 0.00 | 75 | |
| 20260509150600 | 57 | 50 | 9.0 | 15.0 | 0.00 | 0.00 | 0.00 | 74 | |
| 20260509150501 | 57 | 51 | 9.0 | 15.0 | 0.00 | 0.00 | 0.00 | 74 | |
| 20260509150400 | 57 | 51 | 9.0 | 15.0 | 0.00 | 0.00 | 0.00 | 74 | |
| 20260509150300 | 57 | 52 | 9.0 | 15.0 | 0.00 | 0.00 | 0.00 | 74 | |
| 20260509150201 | 57 | 52 | 9.0 | 15.0 | 0.00 | 0.00 | 0.00 | 73 | |
| 20260509150101 | 57 | 53 | 9.0 | 15.0 | 0.00 | 0.00 | 0.00 | 73 | |
| 20260509150022 | 57 | 52 | 9.0 | 16.0 | 0.00 | 0.00 | 0.00 | 73 | |
| 20260509145922 | 58 | 52 | 9.0 | 16.0 | 0.00 | 0.00 | 0.00 | 73 | |
| 20260509145800 | 58 | 52 | 9.0 | 16.0 | 0.00 | 0.00 | 0.00 | 73 | |
| 20260509145700 | 58 | 51 | 9.0 | 16.0 | 0.00 | 0.00 | 0.00 | 73 | |
| 20260509145601 | 58 | 52 | 9.0 | 16.0 | 0.00 | 0.00 | 0.00 | 72 | |
| 20260509145522 | 58 | 52 | 9.0 | 16.0 | 0.00 | 0.00 | 0.00 | 72 | |
| 20260509145401 | 58 | 54 | 9.0 | 16.0 | 0.00 | 0.00 | 0.00 | 72 | |
| 20260509145301 | 58 | 53 | 9.0 | 16.0 | 0.00 | 0.00 | 0.00 | 72 | |
| 20260509145201 | 58 | 55 | 9.0 | 16.0 | 0.00 | 0.00 | 0.00 | 71 | |
| 20260509145101 | 58 | 55 | 9.0 | 16.0 | 0.00 | 0.00 | 0.00 | 72 | |
| 20260509145000 | 58 | 57 | 9.0 | 15.0 | 0.00 | 0.00 | 0.00 | 71 | |
| 20260509144921 | 58 | 58 | 9.0 | 15.0 | 0.00 | 0.00 | 0.00 | 71 | |
| 20260509144801 | 58 | 58 | 9.0 | 15.0 | 0.00 | 0.00 | 0.00 | 71 | |
| 20260509144700 | 58 | 60 | 9.0 | 15.0 | 0.00 | 0.00 | 0.00 | 70 | |
| 20260509144601 | 58 | 61 | 9.0 | 15.0 | 0.00 | 0.00 | 0.00 | 70 | |
| 20260509144501 | 59 | 60 | 8.0 | 15.0 | 0.00 | 0.00 | 0.00 | 70 | |
| 20260509144400 | 59 | 61 | 8.0 | 13.0 | 0.00 | 0.00 | 0.00 | 70 | |
| 20260509144301 | 59 | 64 | 8.0 | 14.0 | 0.00 | 0.00 | 0.00 | 71 | |
| 20260509144200 | 59 | 65 | 9.0 | 15.0 | 0.00 | 0.00 | 0.00 | 70 | |
| 20260509144100 | 59 | 67 | 9.0 | 15.0 | 0.00 | 0.00 | 0.00 | 70 | |
| 20260509144001 | 59 | 66 | 9.0 | 15.0 | 0.00 | 0.00 | 0.00 | 69 | |
| 20260509143901 | 59 | 68 | 9.0 | 15.0 | 0.00 | 0.00 | 0.00 | 69 | |
| 20260509143801 | 60 | 67 | 9.0 | 15.0 | 0.00 | 0.00 | 0.00 | 69 | |
| 20260509143700 | 60 | 68 | 9.0 | 15.0 | 0.00 | 0.00 | 0.00 | 68 | |
| 20260509143601 | 60 | 68 | 9.0 | 15.0 | 0.00 | 0.00 | 0.00 | 69 | |
| 20260509143500 | 60 | 70 | 9.0 | 15.0 | 0.00 | 0.00 | 0.00 | 69 | |
| 20260509143400 | 60 | 69 | 9.0 | 15.0 | 0.00 | 0.00 | 0.00 | 69 | |
| 20260509143300 | 60 | 67 | 10.0 | 15.0 | 0.00 | 0.00 | 0.00 | 69 | |
| 20260509143200 | 60 | 65 | 10.0 | 15.0 | 0.00 | 0.00 | 0.00 | 69 | |
| 20260509143101 | 60 | 64 | 10.0 | 15.0 | 0.00 | 0.00 | 0.00 | 69 | |
| 20260509143021 | 60 | 63 | 9.0 | 15.0 | 0.00 | 0.00 | 0.00 | 69 | |
| 20260509142900 | 60 | 59 | 10.0 | 15.0 | 0.00 | 0.00 | 0.00 | 69 | |
| 20260509142801 | 60 | 56 | 10.0 | 16.0 | 0.00 | 0.00 | 0.00 | 69 | |
| 20260509142700 | 60 | 53 | 10.0 | 18.0 | 0.00 | 0.00 | 0.00 | 69 | |
| 20260509142600 | 60 | 51 | 10.0 | 18.0 | 0.00 | 0.00 | 0.00 | 69 | |
| 20260509142501 | 60 | 48 | 10.0 | 18.0 | 0.00 | 0.00 | 0.00 | 69 | |
| 20260509142401 | 60 | 46 | 10.0 | 18.0 | 0.00 | 0.00 | 0.00 | 69 | |
| 20260509142301 | 60 | 45 | 10.0 | 18.0 | 0.00 | 0.00 | 0.00 | 70 | |
| 20260509142200 | 60 | 42 | 10.0 | 18.0 | 0.00 | 0.00 | 0.00 | 71 | |
| 20260509142121 | 60 | 42 | 10.0 | 18.0 | 0.00 | 0.00 | 0.00 | 71 | |
| 20260509142001 | 60 | 42 | 10.0 | 18.0 | 0.00 | 0.00 | 0.00 | 70 | |
| 20260509141901 | 60 | 42 | 10.0 | 18.0 | 0.00 | 0.00 | 0.00 | 70 | |
| 20260509141801 | 60 | 43 | 10.0 | 18.0 | 0.00 | 0.00 | 0.00 | 70 | |
| 20260509141701 | 60 | 42 | 10.0 | 14.0 | 0.00 | 0.00 | 0.00 | 71 | |
| 20260509141600 | 60 | 42 | 9.0 | 14.0 | 0.00 | 0.00 | 0.00 | 71 | |
| 20260509141500 | 60 | 41 | 10.0 | 14.0 | 0.00 | 0.00 | 0.00 | 71 | |
| 20260509141422 | 60 | 42 | 9.0 | 14.0 | 0.00 | 0.00 | 0.00 | 71 | |
| 20260509141302 | 60 | 41 | 9.0 | 15.0 | 0.00 | 0.00 | 0.00 | 70 | |
| 20260509141221 | 60 | 41 | 9.0 | 15.0 | 0.00 | 0.00 | 0.00 | 70 | |
| 20260509141101 | 60 | 37 | 9.0 | 16.0 | 0.00 | 0.00 | 0.00 | 71 | |
| 20260509141000 | 60 | 36 | 9.0 | 16.0 | 0.00 | 0.00 | 0.00 | 71 | |
| 20260509140900 | 60 | 35 | 9.0 | 16.0 | 0.00 | 0.00 | 0.00 | 71 | |
| 20260509140800 | 60 | 36 | 9.0 | 16.0 | 0.00 | 0.00 | 0.00 | 71 | |
| 20260509140700 | 60 | 39 | 9.0 | 16.0 | 0.00 | 0.00 | 0.00 | 71 | |
| 20260509140600 | 60 | 41 | 9.0 | 16.0 | 0.00 | 0.00 | 0.00 | 70 | |
| 20260509140522 | 60 | 43 | 9.0 | 16.0 | 0.00 | 0.00 | 0.00 | 70 | |
| 20260509140400 | 60 | 45 | 9.0 | 16.0 | 0.00 | 0.00 | 0.00 | 69 | |
| 20260509140301 | 60 | 47 | 9.0 | 16.0 | 0.00 | 0.00 | 0.00 | 69 | |
| 20260509140201 | 60 | 49 | 8.0 | 16.0 | 0.00 | 0.00 | 0.00 | 69 | |
| 20260509140100 | 60 | 50 | 8.0 | 15.0 | 0.00 | 0.00 | 0.00 | 68 | |
| 20260509140001 | 61 | 51 | 8.0 | 15.0 | 0.00 | 0.00 | 0.00 | 67 | |
| 20260509135901 | 61 | 52 | 8.0 | 15.0 | 0.00 | 0.00 | 0.00 | 67 | |
| 20260509135801 | 61 | 55 | 8.0 | 15.0 | 0.00 | 0.00 | 0.00 | 66 | |
| 20260509135721 | 61 | 55 | 8.0 | 15.0 | 0.00 | 0.00 | 0.00 | 66 | |
| 20260509135602 | 61 | 54 | 7.0 | 15.0 | 0.00 | 0.00 | 0.00 | 68 | |
| 20260509135500 | 61 | 52 | 7.0 | 12.0 | 0.00 | 0.00 | 0.00 | 67 | |
| 20260509135400 | 61 | 52 | 8.0 | 12.0 | 0.00 | 0.00 | 0.00 | 68 | |
| 20260509135301 | 61 | 49 | 8.0 | 12.0 | 0.00 | 0.00 | 0.00 | 68 | |
| 20260509135200 | 61 | 50 | 8.0 | 13.0 | 0.00 | 0.00 | 0.00 | 68 | |
| 20260509135100 | 61 | 52 | 8.0 | 13.0 | 0.00 | 0.00 | 0.00 | 68 | |
| 20260509135001 | 61 | 55 | 8.0 | 13.0 | 0.00 | 0.00 | 0.00 | 67 | |
| 20260509134900 | 61 | 56 | 8.0 | 13.0 | 0.00 | 0.00 | 0.00 | 68 | |
| 20260509134800 | 61 | 53 | 8.0 | 13.0 | 0.00 | 0.00 | 0.00 | 68 | |
| 20260509134700 | 61 | 53 | 8.0 | 13.0 | 0.00 | 0.00 | 0.00 | 67 | |
| 20260509134601 | 61 | 53 | 8.0 | 13.0 | 0.00 | 0.00 | 0.00 | 67 | |
| 20260509134500 | 61 | 53 | 8.0 | 13.0 | 0.00 | 0.00 | 0.00 | 67 | |
| 20260509134400 | 61 | 54 | 8.0 | 13.0 | 0.00 | 0.00 | 0.00 | 67 | |
| 20260509134301 | 61 | 55 | 8.0 | 13.0 | 0.00 | 0.00 | 0.00 | 67 | |
| 20260509134200 | 61 | 57 | 8.0 | 13.0 | 0.00 | 0.00 | 0.00 | 67 | |
| 20260509134100 | 61 | 58 | 8.0 | 13.0 | 0.00 | 0.00 | 0.00 | 67 | |
| 20260509134000 | 61 | 57 | 8.0 | 13.0 | 0.00 | 0.00 | 0.00 | 66 | |
| 20260509133900 | 61 | 56 | 7.0 | 14.0 | 0.00 | 0.00 | 0.00 | 67 | |
| 20260509133800 | 61 | 55 | 7.0 | 14.0 | 0.00 | 0.00 | 0.00 | 66 | |
| 20260509133700 | 61 | 52 | 8.0 | 14.0 | 0.00 | 0.00 | 0.00 | 66 | |
| 20260509133600 | 61 | 47 | 8.0 | 14.0 | 0.00 | 0.00 | 0.00 | 66 | |
| 20260509133521 | 62 | 44 | 8.0 | 14.0 | 0.00 | 0.00 | 0.00 | 66 | |
| 20260509133400 | 62 | 37 | 7.0 | 14.0 | 0.00 | 0.00 | 0.00 | 66 | |
| 20260509133300 | 62 | 33 | 7.0 | 14.0 | 0.00 | 0.00 | 0.00 | 65 | |
| 20260509133201 | 62 | 27 | 7.0 | 14.0 | 0.00 | 0.00 | 0.00 | 65 | |
| 20260509133100 | 62 | 20 | 7.0 | 14.0 | 0.00 | 0.00 | 0.00 | 64 | |
| 20260509133001 | 62 | 15 | 7.0 | 14.0 | 0.00 | 0.00 | 0.00 | 62 | |
| 20260509132900 | 62 | 10 | 7.0 | 10.0 | 0.00 | 0.00 | 0.00 | 62 | |
| 20260509132822 | 62 | 9 | 7.0 | 10.0 | 0.00 | 0.00 | 0.00 | 62 | |
| 20260509132700 | 62 | 8 | 7.0 | 10.0 | 0.00 | 0.00 | 0.00 | 61 | |
| 20260509132601 | 62 | 7 | 7.0 | 10.0 | 0.00 | 0.00 | 0.00 | 61 | |
| 20260509132500 | 62 | 7 | 7.0 | 10.0 | 0.00 | 0.00 | 0.00 | 61 | |
| 20260509132400 | 62 | 7 | 7.0 | 10.0 | 0.00 | 0.00 | 0.00 | 60 | |
| 20260509132301 | 62 | 8 | 6.0 | 10.0 | 0.00 | 0.00 | 0.00 | 60 | |
| 20260509132201 | 62 | 9 | 6.0 | 10.0 | 0.00 | 0.00 | 0.00 | 61 | |
| 20260509132121 | 62 | 11 | 6.0 | 10.0 | 0.00 | 0.00 | 0.00 | 61 | |
| 20260509132000 | 62 | 15 | 6.0 | 9.0 | 0.00 | 0.00 | 0.00 | 61 | |
| 20260509131900 | 62 | 18 | 6.0 | 9.0 | 0.00 | 0.00 | 0.00 | 61 | |
| 20260509131822 | 62 | 21 | 6.0 | 9.0 | 0.00 | 0.00 | 0.00 | 61 | |
| 20260509131700 | 62 | 25 | 6.0 | 9.0 | 0.00 | 0.00 | 0.00 | 61 | |
| 20260509131600 | 62 | 27 | 6.0 | 9.0 | 0.00 | 0.00 | 0.00 | 60 | |
| 20260509131501 | 62 | 29 | 6.0 | 9.0 | 0.00 | 0.00 | 0.00 | 59 | |
| 20260509131401 | 62 | 30 | 6.0 | 9.0 | 0.00 | 0.00 | 0.00 | 58 | |
| 20260509131322 | 62 | 30 | 5.0 | 9.0 | 0.00 | 0.00 | 0.00 | 58 | |
| 20260509131200 | 62 | 32 | 5.0 | 9.0 | 0.00 | 0.00 | 0.00 | 58 | |
| 20260509131101 | 62 | 31 | 5.0 | 9.0 | 0.00 | 0.00 | 0.00 | 58 | |
| 20260509131001 | 62 | 31 | 5.0 | 9.0 | 0.00 | 0.00 | 0.00 | 59 | |
| 20260509130900 | 62 | 30 | 4.0 | 8.0 | 0.00 | 0.00 | 0.00 | 59 | |
| 20260509130801 | 62 | 29 | 4.0 | 8.0 | 0.00 | 0.00 | 0.00 | 61 | |
| 20260509130700 | 62 | 29 | 4.0 | 8.0 | 0.00 | 0.00 | 0.00 | 59 | |
| 20260509130622 | 62 | 29 | 4.0 | 8.0 | 0.00 | 0.00 | 0.00 | 59 | |
| 20260509130500 | 62 | 29 | 4.0 | 8.0 | 0.00 | 0.00 | 0.00 | 59 | |
| 20260509130401 | 62 | 29 | 4.0 | 8.0 | 0.00 | 0.00 | 0.00 | 58 | |
| 20260509130322 | 62 | 29 | 5.0 | 8.0 | 0.00 | 0.00 | 0.00 | 58 | |
| 20260509130201 | 61 | 27 | 5.0 | 8.0 | 0.00 | 0.00 | 0.00 | 57 | |
| 20260509130100 | 62 | 25 | 5.0 | 8.0 | 0.00 | 0.00 | 0.00 | 57 | |
| 20260509130002 | 62 | 23 | 5.0 | 8.0 | 0.00 | 0.00 | 0.00 | 58 | |
| 20260509125900 | 62 | 21 | 6.0 | 9.0 | 0.00 | 0.00 | 0.00 | 59 | |
| 20260509125821 | 61 | 21 | 6.0 | 9.0 | 0.00 | 0.00 | 0.00 | 59 | |
| 20260509125702 | 61 | 19 | 5.0 | 9.0 | 0.00 | 0.00 | 0.00 | 58 | |
| 20260509125601 | 62 | 18 | 5.0 | 9.0 | 0.00 | 0.00 | 0.00 | 60 | |
| 20260509125521 | 61 | 19 | 5.0 | 9.0 | 0.00 | 0.00 | 0.00 | 60 | |
| 20260509125400 | 61 | 22 | 5.0 | 9.0 | 0.00 | 0.00 | 0.00 | 59 | |
| 20260509125300 | 61 | 23 | 5.0 | 9.0 | 0.00 | 0.00 | 0.00 | 60 | |
| 20260509125200 | 61 | 22 | 5.0 | 9.0 | 0.00 | 0.00 | 0.00 | 59 | |
| 20260509125101 | 61 | 24 | 5.0 | 9.0 | 0.00 | 0.00 | 0.00 | 58 | |
| 20260509125000 | 61 | 25 | 5.0 | 9.0 | 0.00 | 0.00 | 0.00 | 60 | |
| 20260509124922 | 61 | 24 | 5.0 | 9.0 | 0.00 | 0.00 | 0.00 | 60 | |
| 20260509124800 | 61 | 25 | 5.0 | 9.0 | 0.00 | 0.00 | 0.00 | 60 | |
| 20260509124700 | 61 | 24 | 5.0 | 9.0 | 0.00 | 0.00 | 0.00 | 59 | |
| 20260509124601 | 61 | 25 | 5.0 | 9.0 | 0.00 | 0.00 | 0.00 | 60 | |
| 20260509124501 | 61 | 26 | 6.0 | 9.0 | 0.00 | 0.00 | 0.00 | 60 | |
| 20260509124401 | 61 | 24 | 6.0 | 10.0 | 0.00 | 0.00 | 0.00 | 61 | |
| 20260509124321 | 61 | 23 | 6.0 | 10.0 | 0.00 | 0.00 | 0.00 | 61 | |
| 20260509124201 | 61 | 20 | 6.0 | 10.0 | 0.00 | 0.00 | 0.00 | 60 | |
| 20260509124100 | 61 | 19 | 6.0 | 10.0 | 0.00 | 0.00 | 0.00 | 60 | |
| 20260509124021 | 61 | 21 | 6.0 | 10.0 | 0.00 | 0.00 | 0.00 | 60 | |
| 20260509123900 | 61 | 25 | 6.0 | 10.0 | 0.00 | 0.00 | 0.00 | 60 | |
| 20260509123821 | 61 | 25 | 6.0 | 10.0 | 0.00 | 0.00 | 0.00 | 60 | |
| 20260509123701 | 61 | 27 | 6.0 | 10.0 | 0.00 | 0.00 | 0.00 | 60 | |
| 20260509123602 | 61 | 26 | 6.0 | 10.0 | 0.00 | 0.00 | 0.00 | 60 | |
| 20260509123500 | 61 | 26 | 5.0 | 10.0 | 0.00 | 0.00 | 0.00 | 61 | |
| 20260509123400 | 61 | 24 | 5.0 | 9.0 | 0.00 | 0.00 | 0.00 | 61 | |
| 20260509123322 | 62 | 25 | 5.0 | 9.0 | 0.00 | 0.00 | 0.00 | 61 | |
| 20260509123200 | 62 | 32 | 5.0 | 9.0 | 0.00 | 0.00 | 0.00 | 61 | |
| 20260509123100 | 61 | 35 | 5.0 | 8.0 | 0.00 | 0.00 | 0.00 | 61 | |
| 20260509123001 | 61 | 35 | 5.0 | 8.0 | 0.00 | 0.00 | 0.00 | 62 | |
| 20260509122922 | 61 | 35 | 5.0 | 8.0 | 0.00 | 0.00 | 0.00 | 62 | |
| 20260509122800 | 61 | 39 | 5.0 | 8.0 | 0.00 | 0.00 | 0.00 | 61 | |
| 20260509122701 | 61 | 41 | 5.0 | 8.0 | 0.00 | 0.00 | 0.00 | 62 | |
| 20260509122600 | 61 | 37 | 5.0 | 9.0 | 0.00 | 0.00 | 0.00 | 61 | |
| 20260509122501 | 61 | 34 | 5.0 | 9.0 | 0.00 | 0.00 | 0.00 | 61 | |
| 20260509122400 | 62 | 37 | 5.0 | 9.0 | 0.00 | 0.00 | 0.00 | 61 | |
| 20260509122300 | 62 | 37 | 5.0 | 9.0 | 0.00 | 0.00 | 0.00 | 61 | |
| 20260509122222 | 61 | 34 | 6.0 | 9.0 | 0.00 | 0.00 | 0.00 | 61 | |
| 20260509122101 | 61 | 31 | 6.0 | 9.0 | 0.00 | 0.00 | 0.00 | 61 | |
| 20260509122001 | 61 | 25 | 6.0 | 9.0 | 0.00 | 0.00 | 0.00 | 62 | |
| 20260509121900 | 61 | 21 | 6.0 | 9.0 | 0.00 | 0.00 | 0.00 | 63 | |
| 20260509121801 | 61 | 18 | 6.0 | 9.0 | 0.00 | 0.00 | 0.00 | 64 | |
| 20260509121700 | 61 | 16 | 6.0 | 9.0 | 0.00 | 0.00 | 0.00 | 63 | |
| 20260509121601 | 61 | 17 | 6.0 | 9.0 | 0.00 | 0.00 | 0.00 | 62 | |
| 20260509121523 | 61 | 18 | 6.0 | 9.0 | 0.00 | 0.00 | 0.00 | 62 | |
| 20260509121400 | 61 | 19 | 6.0 | 9.0 | 0.00 | 0.00 | 0.00 | 63 | |
| 20260509121300 | 61 | 20 | 6.0 | 9.0 | 0.00 | 0.00 | 0.00 | 64 | |
| 20260509121221 | 62 | 22 | 6.0 | 10.0 | 0.00 | 0.00 | 0.00 | 64 | |
| 20260509121122 | 62 | 24 | 6.0 | 10.0 | 0.00 | 0.00 | 0.00 | 62 | |
| 20260509121000 | 62 | 32 | 6.0 | 10.0 | 0.00 | 0.00 | 0.00 | 61 | |
| 20260509120922 | 62 | 33 | 5.0 | 10.0 | 0.00 | 0.00 | 0.00 | 61 | |
| 20260509120801 | 62 | 38 | 5.0 | 10.0 | 0.00 | 0.00 | 0.00 | 63 | |
| 20260509120700 | 62 | 40 | 5.0 | 10.0 | 0.00 | 0.00 | 0.00 | 63 | |
| 20260509120600 | 62 | 39 | 5.0 | 10.0 | 0.00 | 0.00 | 0.00 | 63 | |
| 20260509120501 | 62 | 43 | 5.0 | 10.0 | 0.00 | 0.00 | 0.00 | 63 | |
| 20260509120400 | 62 | 42 | 5.0 | 10.0 | 0.00 | 0.00 | 0.00 | 63 | |
| 20260509120301 | 62 | 39 | 5.0 | 10.0 | 0.00 | 0.00 | 0.00 | 64 | |
| 20260509120201 | 62 | 36 | 5.0 | 9.0 | 0.00 | 0.00 | 0.00 | 64 | |
| 20260509120101 | 62 | 32 | 5.0 | 9.0 | 0.00 | 0.00 | 0.00 | 64 | |
| 20260509120001 | 61 | 29 | 5.0 | 9.0 | 0.00 | 0.00 | 0.00 | 64 | |
| 20260509115900 | 61 | 30 | 6.0 | 9.0 | 0.00 | 0.00 | 0.00 | 64 | |
| 20260509115800 | 61 | 29 | 6.0 | 9.0 | 0.00 | 0.00 | 0.00 | 64 | |
| 20260509115701 | 61 | 28 | 5.0 | 9.0 | 0.00 | 0.00 | 0.00 | 65 | |
| 20260509115600 | 61 | 31 | 5.0 | 9.0 | 0.00 | 0.00 | 0.00 | 65 | |
| 20260509115500 | 61 | 29 | 5.0 | 9.0 | 0.00 | 0.00 | 0.00 | 67 | |
| 20260509115401 | 61 | 28 | 5.0 | 9.0 | 0.00 | 0.00 | 0.00 | 66 | |
| 20260509115300 | 61 | 27 | 5.0 | 9.0 | 0.00 | 0.00 | 0.00 | 65 | |
| 20260509115200 | 61 | 31 | 5.0 | 9.0 | 0.00 | 0.00 | 0.00 | 66 | |
| 20260509115101 | 61 | 32 | 5.0 | 9.0 | 0.00 | 0.00 | 0.00 | 65 | |
| 20260509115001 | 61 | 35 | 5.0 | 9.0 | 0.00 | 0.00 | 0.00 | 65 | |
| 20260509114901 | 61 | 38 | 4.0 | 8.0 | 0.00 | 0.00 | 0.00 | 65 | |
| 20260509114822 | 61 | 40 | 5.0 | 7.0 | 0.00 | 0.00 | 0.00 | 65 | |
| 20260509114701 | 61 | 39 | 5.0 | 7.0 | 0.00 | 0.00 | 0.00 | 66 | |
| 20260509114601 | 61 | 37 | 4.0 | 7.0 | 0.00 | 0.00 | 0.00 | 66 | |
| 20260509114500 | 61 | 39 | 4.0 | 7.0 | 0.00 | 0.00 | 0.00 | 67 | |
| 20260509114402 | 61 | 41 | 4.0 | 7.0 | 0.00 | 0.00 | 0.00 | 66 | |
| 20260509114300 | 61 | 44 | 4.0 | 7.0 | 0.00 | 0.00 | 0.00 | 67 | |
| 20260509114222 | 61 | 45 | 5.0 | 8.0 | 0.00 | 0.00 | 0.00 | 67 | |
| 20260509114101 | 61 | 45 | 5.0 | 8.0 | 0.00 | 0.00 | 0.00 | 65 | |
| 20260509114001 | 61 | 41 | 5.0 | 8.0 | 0.00 | 0.00 | 0.00 | 65 | |
| 20260509113922 | 61 | 37 | 5.0 | 8.0 | 0.00 | 0.00 | 0.00 | 65 | |
| 20260509113800 | 61 | 26 | 5.0 | 8.0 | 0.00 | 0.00 | 0.00 | 65 | |
| 20260509113700 | 61 | 23 | 5.0 | 9.0 | 0.00 | 0.00 | 0.00 | 66 | |
| 20260509113601 | 61 | 22 | 5.0 | 9.0 | 0.00 | 0.00 | 0.00 | 66 | |
| 20260509113522 | 61 | 20 | 6.0 | 9.0 | 0.00 | 0.00 | 0.00 | 66 | |
| 20260509113400 | 61 | 18 | 6.0 | 9.0 | 0.00 | 0.00 | 0.00 | 67 | |
| 20260509113301 | 60 | 19 | 6.0 | 9.0 | 0.00 | 0.00 | 0.00 | 69 | |
| 20260509113200 | 60 | 19 | 6.0 | 9.0 | 0.00 | 0.00 | 0.00 | 68 | |
| 20260509113100 | 61 | 18 | 6.0 | 9.0 | 0.00 | 0.00 | 0.00 | 69 | |
| 20260509113001 | 61 | 18 | 6.0 | 9.0 | 0.00 | 0.00 | 0.00 | 69 | |
| 20260509112901 | 61 | 22 | 5.0 | 9.0 | 0.00 | 0.00 | 0.00 | 68 | |
| 20260509112802 | 61 | 24 | 5.0 | 9.0 | 0.00 | 0.00 | 0.00 | 68 | |
| 20260509112701 | 61 | 24 | 5.0 | 8.0 | 0.00 | 0.00 | 0.00 | 67 | |
| 20260509112622 | 61 | 22 | 5.0 | 8.0 | 0.00 | 0.00 | 0.00 | 67 | |
| 20260509112501 | 60 | 26 | 5.0 | 8.0 | 0.00 | 0.00 | 0.00 | 67 | |
| 20260509112401 | 60 | 28 | 5.0 | 8.0 | 0.00 | 0.00 | 0.00 | 68 | |
| 20260509112301 | 60 | 25 | 4.0 | 7.0 | 0.00 | 0.00 | 0.00 | 69 | |
| 20260509112200 | 60 | 23 | 4.0 | 7.0 | 0.00 | 0.00 | 0.00 | 69 | |
| 20260509112100 | 60 | 24 | 4.0 | 8.0 | 0.00 | 0.00 | 0.00 | 71 | |
| 20260509112021 | 60 | 25 | 4.0 | 8.0 | 0.00 | 0.00 | 0.00 | 71 | |
| 20260509111901 | 60 | 22 | 5.0 | 8.0 | 0.00 | 0.00 | 0.00 | 70 | |
| 20260509111800 | 60 | 25 | 5.0 | 8.0 | 0.00 | 0.00 | 0.00 | 70 | |
| 20260509111700 | 60 | 29 | 5.0 | 8.0 | 0.00 | 0.00 | 0.00 | 70 | |
| 20260509111601 | 59 | 29 | 5.0 | 8.0 | 0.00 | 0.00 | 0.00 | 71 | |
| 20260509111522 | 59 | 29 | 5.0 | 8.0 | 0.00 | 0.00 | 0.00 | 71 | |
| 20260509111401 | 59 | 31 | 5.0 | 8.0 | 0.00 | 0.00 | 0.00 | 71 | |
| 20260509111322 | 59 | 32 | 5.0 | 8.0 | 0.00 | 0.00 | 0.00 | 71 | |
| 20260509111200 | 59 | 35 | 5.0 | 8.0 | 0.00 | 0.00 | 0.00 | 72 | |
| 20260509111101 | 59 | 37 | 5.0 | 8.0 | 0.00 | 0.00 | 0.00 | 72 | |
| 20260509111001 | 59 | 37 | 5.0 | 8.0 | 0.00 | 0.00 | 0.00 | 72 | |
| 20260509110922 | 59 | 37 | 5.0 | 8.0 | 0.00 | 0.00 | 0.00 | 72 | |
| 20260509110801 | 59 | 34 | 5.0 | 8.0 | 0.00 | 0.00 | 0.00 | 73 | |
| 20260509110701 | 59 | 30 | 5.0 | 8.0 | 0.00 | 0.00 | 0.00 | 74 | |
| 20260509110601 | 59 | 29 | 6.0 | 8.0 | 0.00 | 0.00 | 0.00 | 74 | |
| 20260509110502 | 59 | 28 | 6.0 | 8.0 | 0.00 | 0.00 | 0.00 | 75 | |
| 20260509110400 | 58 | 26 | 6.0 | 8.0 | 0.00 | 0.00 | 0.00 | 74 | |
| 20260509110300 | 58 | 25 | 6.0 | 8.0 | 0.00 | 0.00 | 0.00 | 75 | |
| 20260509110200 | 58 | 24 | 6.0 | 8.0 | 0.00 | 0.00 | 0.00 | 75 | |
| 20260509110122 | 58 | 24 | 6.0 | 8.0 | 0.00 | 0.00 | 0.00 | 75 | |
| 20260509110022 | 58 | 22 | 6.0 | 8.0 | 0.00 | 0.00 | 0.00 | 75 | |
| 20260509105901 | 58 | 21 | 6.0 | 8.0 | 0.00 | 0.00 | 0.00 | 75 | |
| 20260509105802 | 58 | 21 | 6.0 | 8.0 | 0.00 | 0.00 | 0.00 | 75 | |
| 20260509105722 | 58 | 21 | 6.0 | 8.0 | 0.00 | 0.00 | 0.00 | 75 | |
| 20260509105600 | 58 | 19 | 6.0 | 8.0 | 0.00 | 0.00 | 0.00 | 77 | |
| 20260509105501 | 58 | 18 | 6.0 | 8.0 | 0.00 | 0.00 | 0.00 | 77 | |
| 20260509105421 | 58 | 17 | 6.0 | 7.0 | 0.00 | 0.00 | 0.00 | 77 | |
| 20260509105301 | 58 | 17 | 6.0 | 7.0 | 0.00 | 0.00 | 0.00 | 77 | |
| 20260509105201 | 58 | 15 | 6.0 | 7.0 | 0.00 | 0.00 | 0.00 | 78 | |
| 20260509105101 | 58 | 12 | 5.0 | 7.0 | 0.00 | 0.00 | 0.00 | 78 | |
| 20260509105001 | 58 | 14 | 5.0 | 7.0 | 0.00 | 0.00 | 0.00 | 78 | |
| 20260509104901 | 58 | 16 | 5.0 | 7.0 | 0.00 | 0.00 | 0.00 | 78 | |
| 20260509104801 | 58 | 17 | 5.0 | 7.0 | 0.00 | 0.00 | 0.00 | 78 | |
| 20260509104701 | 58 | 18 | 5.0 | 7.0 | 0.00 | 0.00 | 0.00 | 78 | |
| 20260509104622 | 58 | 20 | 5.0 | 7.0 | 0.00 | 0.00 | 0.00 | 78 | |
| 20260509104501 | 58 | 21 | 5.0 | 7.0 | 0.00 | 0.00 | 0.00 | 78 | |
| 20260509104421 | 58 | 20 | 5.0 | 7.0 | 0.00 | 0.00 | 0.00 | 78 | |
| 20260509104300 | 57 | 21 | 5.0 | 7.0 | 0.00 | 0.00 | 0.00 | 78 | |
| 20260509104201 | 58 | 21 | 5.0 | 7.0 | 0.00 | 0.00 | 0.00 | 78 | |
| 20260509104101 | 58 | 22 | 5.0 | 7.0 | 0.00 | 0.00 | 0.00 | 79 | |
| 20260509104022 | 58 | 23 | 4.0 | 7.0 | 0.00 | 0.00 | 0.00 | 79 | |
| 20260509103900 | 57 | 22 | 4.0 | 7.0 | 0.00 | 0.00 | 0.00 | 78 | |
| 20260509103800 | 57 | 22 | 4.0 | 7.0 | 0.00 | 0.00 | 0.00 | 78 | |
| 20260509103722 | 57 | 23 | 4.0 | 7.0 | 0.00 | 0.00 | 0.00 | 78 | |
| 20260509103602 | 57 | 23 | 4.0 | 7.0 | 0.00 | 0.00 | 0.00 | 78 | |
| 20260509103501 | 57 | 22 | 5.0 | 7.0 | 0.00 | 0.00 | 0.00 | 78 | |
| 20260509103401 | 57 | 23 | 5.0 | 7.0 | 0.00 | 0.00 | 0.00 | 78 | |
| 20260509103301 | 57 | 22 | 5.0 | 7.0 | 0.00 | 0.00 | 0.00 | 79 | |
| 20260509103202 | 57 | 23 | 5.0 | 7.0 | 0.00 | 0.00 | 0.00 | 80 | |
| 20260509103101 | 57 | 22 | 5.0 | 7.0 | 0.00 | 0.00 | 0.00 | 79 | |
| 20260509103001 | 57 | 22 | 5.0 | 7.0 | 0.00 | 0.00 | 0.00 | 78 | |
| 20260509102900 | 57 | 22 | 5.0 | 7.0 | 0.00 | 0.00 | 0.00 | 78 | |
| 20260509102800 | 57 | 22 | 5.0 | 7.0 | 0.00 | 0.00 | 0.00 | 78 | |
| 20260509102701 | 57 | 21 | 5.0 | 7.0 | 0.00 | 0.00 | 0.00 | 78 | |
| 20260509102600 | 58 | 22 | 5.0 | 7.0 | 0.00 | 0.00 | 0.00 | 78 | |
| 20260509102522 | 58 | 23 | 5.0 | 7.0 | 0.00 | 0.00 | 0.00 | 78 | |
| 20260509102422 | 58 | 24 | 5.0 | 7.0 | 0.00 | 0.00 | 0.00 | 79 | |
| 20260509102301 | 58 | 24 | 5.0 | 7.0 | 0.00 | 0.00 | 0.00 | 79 | |
| 20260509102200 | 58 | 24 | 5.0 | 7.0 | 0.00 | 0.00 | 0.00 | 79 | |
| 20260509102102 | 58 | 22 | 5.0 | 7.0 | 0.00 | 0.00 | 0.00 | 79 | |
| 20260509102001 | 58 | 22 | 5.0 | 7.0 | 0.00 | 0.00 | 0.00 | 78 | |
| 20260509101922 | 58 | 22 | 5.0 | 7.0 | 0.00 | 0.00 | 0.00 | 78 | |
| 20260509101802 | 58 | 23 | 5.0 | 7.0 | 0.00 | 0.00 | 0.00 | 78 | |
| 20260509101701 | 58 | 25 | 4.0 | 7.0 | 0.00 | 0.00 | 0.00 | 77 | |
| 20260509101602 | 58 | 26 | 4.0 | 6.0 | 0.00 | 0.00 | 0.00 | 77 | |
| 20260509101502 | 58 | 26 | 4.0 | 6.0 | 0.00 | 0.00 | 0.00 | 77 | |
| 20260509101401 | 58 | 26 | 4.0 | 6.0 | 0.00 | 0.00 | 0.00 | 78 | |
| 20260509101301 | 58 | 26 | 4.0 | 6.0 | 0.00 | 0.00 | 0.00 | 78 | |
| 20260509101201 | 58 | 27 | 4.0 | 6.0 | 0.00 | 0.00 | 0.00 | 77 | |
| 20260509101100 | 58 | 30 | 3.0 | 6.0 | 0.00 | 0.00 | 0.00 | 77 | |
| 20260509101001 | 58 | 33 | 3.0 | 6.0 | 0.00 | 0.00 | 0.00 | 78 | |
| 20260509100901 | 58 | 36 | 3.0 | 6.0 | 0.00 | 0.00 | 0.00 | 77 | |
| 20260509100801 | 58 | 39 | 3.0 | 6.0 | 0.00 | 0.00 | 0.00 | 77 | |
| 20260509100700 | 58 | 40 | 3.0 | 5.0 | 0.00 | 0.00 | 0.00 | 76 | |
| 20260509100600 | 58 | 41 | 3.0 | 5.0 | 0.00 | 0.00 | 0.00 | 76 | |
| 20260509100501 | 58 | 42 | 3.0 | 5.0 | 0.00 | 0.00 | 0.00 | 76 | |
| 20260509100400 | 58 | 43 | 3.0 | 5.0 | 0.00 | 0.00 | 0.00 | 76 | |
| 20260509100301 | 58 | 44 | 3.0 | 5.0 | 0.00 | 0.00 | 0.00 | 76 | |
| 20260509100201 | 58 | 45 | 3.0 | 5.0 | 0.00 | 0.00 | 0.00 | 76 | |
| 20260509100101 | 58 | 47 | 3.0 | 5.0 | 0.00 | 0.00 | 0.00 | 76 | |
| 20260509100001 | 58 | 43 | 3.0 | 5.0 | 0.00 | 0.00 | 0.00 | 76 | |
| 20260509095901 | 58 | 42 | 3.0 | 5.0 | 0.00 | 0.00 | 0.00 | 76 | |
| 20260509095801 | 58 | 39 | 3.0 | 5.0 | 0.00 | 0.00 | 0.00 | 76 | |
| 20260509095701 | 58 | 35 | 3.0 | 5.0 | 0.00 | 0.00 | 0.00 | 76 | |
| 20260509095601 | 58 | 34 | 3.0 | 6.0 | 0.00 | 0.00 | 0.00 | 76 | |
| 20260509095501 | 58 | 34 | 3.0 | 6.0 | 0.00 | 0.00 | 0.00 | 76 | |
| 20260509095422 | 58 | 34 | 3.0 | 6.0 | 0.00 | 0.00 | 0.00 | 76 | |
| 20260509095301 | 58 | 33 | 3.0 | 6.0 | 0.00 | 0.00 | 0.00 | 76 | |
| 20260509095201 | 58 | 33 | 3.0 | 6.0 | 0.00 | 0.00 | 0.00 | 76 | |
| 20260509095101 | 58 | 30 | 3.0 | 6.0 | 0.00 | 0.00 | 0.00 | 76 | |
| 20260509095001 | 58 | 33 | 3.0 | 6.0 | 0.00 | 0.00 | 0.00 | 76 | |
| 20260509094901 | 58 | 35 | 3.0 | 6.0 | 0.00 | 0.00 | 0.00 | 76 | |
| 20260509094801 | 58 | 38 | 3.0 | 6.0 | 0.00 | 0.00 | 0.00 | 76 | |
| 20260509094701 | 58 | 43 | 3.0 | 6.0 | 0.00 | 0.00 | 0.00 | 76 | |
| 20260509094601 | 58 | 47 | 3.0 | 5.0 | 0.00 | 0.00 | 0.00 | 76 | |
| 20260509094501 | 58 | 50 | 3.0 | 5.0 | 0.00 | 0.00 | 0.00 | 77 | |
| 20260509094401 | 58 | 54 | 2.0 | 5.0 | 0.00 | 0.00 | 0.00 | 77 | |
| 20260509094301 | 58 | 57 | 2.0 | 5.0 | 0.00 | 0.00 | 0.00 | 76 | |
| 20260509094201 | 58 | 61 | 3.0 | 5.0 | 0.00 | 0.00 | 0.00 | 76 | |
| 20260509094101 | 58 | 62 | 3.0 | 5.0 | 0.00 | 0.00 | 0.00 | 75 | |
| 20260509094001 | 58 | 65 | 3.0 | 5.0 | 0.00 | 0.00 | 0.00 | 75 | |
| 20260509093901 | 58 | 68 | 3.0 | 5.0 | 0.00 | 0.00 | 0.00 | 74 | |
| 20260509093801 | 58 | 72 | 3.0 | 5.0 | 0.00 | 0.00 | 0.00 | 75 | |
| 20260509093701 | 58 | 78 | 2.0 | 5.0 | 0.00 | 0.00 | 0.00 | 75 | |
| 20260509093601 | 58 | 82 | 2.0 | 5.0 | 0.00 | 0.00 | 0.00 | 75 | |
| 20260509093501 | 58 | 88 | 2.0 | 5.0 | 0.00 | 0.00 | 0.00 | 75 | |
| 20260509093422 | 58 | 93 | 2.0 | 5.0 | 0.00 | 0.00 | 0.00 | 75 | |
| 20260509093301 | 58 | 97 | 2.0 | 5.0 | 0.00 | 0.00 | 0.00 | 75 | |
| 20260509093222 | 58 | 101 | 1.0 | 5.0 | 0.00 | 0.00 | 0.00 | 75 | |
| 20260509093101 | 58 | 105 | 1.0 | 5.0 | 0.00 | 0.00 | 0.00 | 75 | |
| 20260509093001 | 58 | 108 | 1.0 | 4.0 | 0.00 | 0.00 | 0.00 | 75 | |
| 20260509092901 | 58 | 108 | 1.0 | 4.0 | 0.00 | 0.00 | 0.00 | 75 | |
| 20260509092822 | 58 | 108 | 1.0 | 4.0 | 0.00 | 0.00 | 0.00 | 75 | |
| 20260509092723 | 58 | 108 | 1.0 | 4.0 | 0.00 | 0.00 | 0.00 | 75 | |
| 20260509092601 | 57 | 108 | 1.0 | 4.0 | 0.00 | 0.00 | 0.00 | 75 | |
| 20260509092502 | 57 | 108 | 1.0 | 4.0 | 0.00 | 0.00 | 0.00 | 75 | |
| 20260509092401 | 57 | 108 | 1.0 | 4.0 | 0.00 | 0.00 | 0.00 | 75 | |
| 20260509092322 | 57 | 109 | 1.0 | 4.0 | 0.00 | 0.00 | 0.00 | 75 | |
| 20260509092201 | 57 | 109 | 2.0 | 4.0 | 0.00 | 0.00 | 0.00 | 75 | |
| 20260509092101 | 57 | 111 | 2.0 | 4.0 | 0.00 | 0.00 | 0.00 | 75 | |
| 20260509092001 | 57 | 111 | 1.0 | 4.0 | 0.00 | 0.00 | 0.00 | 75 | |
| 20260509091901 | 57 | 112 | 1.0 | 4.0 | 0.00 | 0.00 | 0.00 | 74 | |
| 20260509091801 | 57 | 116 | 1.0 | 4.0 | 0.00 | 0.00 | 0.00 | 74 | |
| 20260509091702 | 57 | 117 | 1.0 | 4.0 | 0.00 | 0.00 | 0.00 | 74 | |
| 20260509091601 | 57 | 119 | 1.0 | 4.0 | 0.00 | 0.00 | 0.00 | 74 | |
| 20260509091501 | 57 | 124 | 1.0 | 4.0 | 0.00 | 0.00 | 0.00 | 74 | |
| 20260509091401 | 57 | 129 | 1.0 | 4.0 | 0.00 | 0.00 | 0.00 | 75 | |
| 20260509091301 | 57 | 134 | 1.0 | 4.0 | 0.00 | 0.00 | 0.00 | 75 | |
| 20260509091201 | 57 | 141 | 0.0 | 4.0 | 0.00 | 0.00 | 0.00 | 75 | |
| 20260509091101 | 57 | 164 | 0.0 | 2.0 | 0.00 | 0.00 | 0.00 | 75 | |
| 20260509091001 | 57 | 164 | 0.0 | 2.0 | 0.00 | 0.00 | 0.00 | 75 | |
| 20260509090901 | 57 | 164 | 0.0 | 2.0 | 0.00 | 0.00 | 0.00 | 75 | |
| 20260509090801 | 57 | 164 | 0.0 | 4.0 | 0.00 | 0.00 | 0.00 | 75 | |
| 20260509090701 | 57 | 164 | 0.0 | 4.0 | 0.00 | 0.00 | 0.00 | 75 | |
| 20260509090622 | 57 | 164 | 0.0 | 4.0 | 0.00 | 0.00 | 0.00 | 75 | |
| 20260509090522 | 56 | 164 | 0.0 | 4.0 | 0.00 | 0.00 | 0.00 | 75 | |
| 20260509090402 | 56 | 164 | 0.0 | 4.0 | 0.00 | 0.00 | 0.00 | 74 | |
| 20260509090301 | 56 | 164 | 0.0 | 4.0 | 0.00 | 0.00 | 0.00 | 74 | |
| 20260509090201 | 56 | 164 | 0.0 | 4.0 | 0.00 | 0.00 | 0.00 | 75 | |
| 20260509090101 | 56 | 164 | 0.0 | 4.0 | 0.00 | 0.00 | 0.00 | 75 | |
| 20260509090001 | 56 | 164 | 0.0 | 4.0 | 0.00 | 0.00 | 0.00 | 76 | |
| 20260509085901 | 56 | 164 | 0.0 | 4.0 | 0.00 | 0.00 | 0.00 | 76 | |
| 20260509085801 | 56 | 0 | 0.0 | 0.0 | 0.00 | 0.00 | 0.00 | 76 | |
| 20260509085701 | 56 | 0 | 0.0 | 0.0 | 0.00 | 0.00 | 0.00 | 77 | |
| 20260509085601 | 56 | 0 | 0.0 | 0.0 | 0.00 | 0.00 | 0.00 | 77 | |
| 20260509085501 | 56 | 0 | 0.0 | 0.0 | 0.00 | 0.00 | 0.00 | 77 | |
| 20260509085402 | 56 | 0 | 0.0 | 0.0 | 0.00 | 0.00 | 0.00 | 77 | |
| 20260509085301 | 56 | 0 | 0.0 | 0.0 | 0.00 | 0.00 | 0.00 | 76 | |
| 20260509085222 | 56 | 164 | 0.0 | 2.0 | 0.00 | 0.00 | 0.00 | 76 | |
| 20260509085101 | 56 | 164 | 1.0 | 4.0 | 0.00 | 0.00 | 0.00 | 77 | |
| 20260509085001 | 56 | 164 | 1.0 | 4.0 | 0.00 | 0.00 | 0.00 | 77 | |
| 20260509084901 | 56 | 164 | 1.0 | 4.0 | 0.00 | 0.00 | 0.00 | 77 | |
| 20260509084802 | 56 | 164 | 1.0 | 4.0 | 0.00 | 0.00 | 0.00 | 77 | |
| 20260509084722 | 56 | 164 | 1.0 | 4.0 | 0.00 | 0.00 | 0.00 | 77 | |
| 20260509084601 | 56 | 164 | 1.0 | 4.0 | 0.00 | 0.00 | 0.00 | 77 | |
| 20260509084501 | 56 | 164 | 1.0 | 4.0 | 0.00 | 0.00 | 0.00 | 78 | |
| 20260509084401 | 56 | 164 | 2.0 | 4.0 | 0.00 | 0.00 | 0.00 | 78 | |
| 20260509084301 | 56 | 164 | 2.0 | 4.0 | 0.00 | 0.00 | 0.00 | 78 | |
| 20260509084201 | 56 | 163 | 2.0 | 4.0 | 0.00 | 0.00 | 0.00 | 78 | |
| 20260509084122 | 56 | 163 | 1.0 | 4.0 | 0.00 | 0.00 | 0.00 | 78 | |
| 20260509084001 | 56 | 163 | 2.0 | 4.0 | 0.00 | 0.00 | 0.00 | 78 | |
| 20260509083901 | 56 | 163 | 2.0 | 4.0 | 0.00 | 0.00 | 0.00 | 78 | |
| 20260509083801 | 56 | 163 | 2.0 | 4.0 | 0.00 | 0.00 | 0.00 | 78 | |
| 20260509083701 | 56 | 163 | 2.0 | 4.0 | 0.00 | 0.00 | 0.00 | 78 | |
| 20260509083601 | 56 | 162 | 2.0 | 5.0 | 0.00 | 0.00 | 0.00 | 78 | |
| 20260509083500 | 56 | 163 | 2.0 | 5.0 | 0.00 | 0.00 | 0.00 | 78 | |
| 20260509083401 | 55 | 162 | 2.0 | 5.0 | 0.00 | 0.00 | 0.00 | 78 | |
| 20260509083301 | 55 | 163 | 2.0 | 5.0 | 0.00 | 0.00 | 0.00 | 79 | |
| 20260509083222 | 55 | 164 | 2.0 | 5.0 | 0.00 | 0.00 | 0.00 | 79 | |
| 20260509083101 | 55 | 165 | 2.0 | 5.0 | 0.00 | 0.00 | 0.00 | 79 | |
| 20260509083001 | 55 | 167 | 2.0 | 5.0 | 0.00 | 0.00 | 0.00 | 79 | |
| 20260509082901 | 55 | 169 | 3.0 | 5.0 | 0.00 | 0.00 | 0.00 | 79 | |
| 20260509082823 | 55 | 170 | 3.0 | 5.0 | 0.00 | 0.00 | 0.00 | 79 | |
| 20260509082701 | 55 | 171 | 3.0 | 5.0 | 0.00 | 0.00 | 0.00 | 79 | |
| 20260509082601 | 55 | 173 | 3.0 | 5.0 | 0.00 | 0.00 | 0.00 | 79 | |
| 20260509082501 | 55 | 174 | 3.0 | 5.0 | 0.00 | 0.00 | 0.00 | 79 | |
| 20260509082422 | 55 | 174 | 3.0 | 5.0 | 0.00 | 0.00 | 0.00 | 79 | |
| 20260509082301 | 55 | 175 | 3.0 | 5.0 | 0.00 | 0.00 | 0.00 | 79 | |
| 20260509082201 | 55 | 175 | 3.0 | 5.0 | 0.00 | 0.00 | 0.00 | 80 | |
| 20260509082101 | 55 | 175 | 3.0 | 5.0 | 0.00 | 0.00 | 0.00 | 80 | |
| 20260509082001 | 55 | 175 | 3.0 | 5.0 | 0.00 | 0.00 | 0.00 | 80 | |
| 20260509081901 | 55 | 174 | 2.0 | 5.0 | 0.00 | 0.00 | 0.00 | 80 | |
| 20260509081801 | 55 | 174 | 2.0 | 5.0 | 0.00 | 0.00 | 0.00 | 80 | |
| 20260509081722 | 55 | 173 | 2.0 | 5.0 | 0.00 | 0.00 | 0.00 | 80 | |
| 20260509081601 | 55 | 172 | 2.0 | 5.0 | 0.00 | 0.00 | 0.00 | 81 | |
| 20260509081501 | 55 | 170 | 2.0 | 5.0 | 0.00 | 0.00 | 0.00 | 81 | |
| 20260509081401 | 55 | 170 | 3.0 | 5.0 | 0.00 | 0.00 | 0.00 | 81 | |
| 20260509081301 | 55 | 170 | 3.0 | 5.0 | 0.00 | 0.00 | 0.00 | 80 | |
| 20260509081201 | 55 | 170 | 3.0 | 5.0 | 0.00 | 0.00 | 0.00 | 81 | |
| 20260509081101 | 55 | 169 | 3.0 | 5.0 | 0.00 | 0.00 | 0.00 | 81 | |
| 20260509081001 | 55 | 168 | 3.0 | 5.0 | 0.00 | 0.00 | 0.00 | 81 | |
| 20260509080901 | 55 | 168 | 3.0 | 6.0 | 0.00 | 0.00 | 0.00 | 81 | |
| 20260509080801 | 55 | 168 | 3.0 | 6.0 | 0.00 | 0.00 | 0.00 | 81 | |
| 20260509080701 | 55 | 167 | 3.0 | 6.0 | 0.00 | 0.00 | 0.00 | 81 | |
| 20260509080602 | 55 | 166 | 3.0 | 6.0 | 0.00 | 0.00 | 0.00 | 82 | |
| 20260509080501 | 55 | 165 | 3.0 | 6.0 | 0.00 | 0.00 | 0.00 | 82 | |
| 20260509080401 | 55 | 164 | 3.0 | 6.0 | 0.00 | 0.00 | 0.00 | 82 | |
| 20260509080322 | 55 | 163 | 4.0 | 6.0 | 0.00 | 0.00 | 0.00 | 82 | |
| 20260509080201 | 55 | 164 | 4.0 | 6.0 | 0.00 | 0.00 | 0.00 | 82 | |
| 20260509080101 | 55 | 164 | 3.0 | 6.0 | 0.00 | 0.00 | 0.00 | 83 | |
| 20260509080001 | 55 | 165 | 3.0 | 6.0 | 0.00 | 0.00 | 0.00 | 83 | |
| 20260509075901 | 54 | 167 | 3.0 | 6.0 | 0.00 | 0.00 | 0.00 | 84 | |
| 20260509075822 | 54 | 168 | 3.0 | 6.0 | 0.00 | 0.00 | 0.00 | 84 | |
| 20260509075701 | 54 | 169 | 3.0 | 7.0 | 0.00 | 0.00 | 0.00 | 84 | |
| 20260509075601 | 54 | 170 | 3.0 | 7.0 | 0.00 | 0.00 | 0.00 | 84 | |
| 20260509075501 | 54 | 172 | 3.0 | 7.0 | 0.00 | 0.00 | 0.00 | 85 | |
| 20260509075401 | 54 | 172 | 3.0 | 7.0 | 0.00 | 0.00 | 0.00 | 85 | |
| 20260509075301 | 54 | 172 | 3.0 | 7.0 | 0.00 | 0.00 | 0.00 | 85 | |
| 20260509075201 | 54 | 170 | 3.0 | 7.0 | 0.00 | 0.00 | 0.00 | 85 | |
| 20260509075101 | 54 | 168 | 3.0 | 7.0 | 0.00 | 0.00 | 0.00 | 86 | |
| 20260509075001 | 54 | 166 | 3.0 | 7.0 | 0.00 | 0.00 | 0.00 | 86 | |
| 20260509074901 | 54 | 161 | 3.0 | 7.0 | 0.00 | 0.00 | 0.00 | 86 | |
| 20260509074822 | 54 | 159 | 3.0 | 7.0 | 0.00 | 0.00 | 0.00 | 86 | |
| 20260509074723 | 54 | 154 | 3.0 | 6.0 | 0.00 | 0.00 | 0.00 | 87 | |
| 20260509074602 | 53 | 150 | 3.0 | 6.0 | 0.00 | 0.00 | 0.00 | 87 | |
| 20260509074501 | 53 | 147 | 2.0 | 6.0 | 0.00 | 0.00 | 0.00 | 88 | |
| 20260509074401 | 53 | 142 | 2.0 | 5.0 | 0.00 | 0.00 | 0.00 | 89 | |
| 20260509074301 | 53 | 140 | 2.0 | 5.0 | 0.00 | 0.00 | 0.00 | 89 | |
| 20260509074201 | 53 | 139 | 2.0 | 5.0 | 0.00 | 0.00 | 0.00 | 89 | |
| 20260509074101 | 53 | 138 | 2.0 | 5.0 | 0.00 | 0.00 | 0.00 | 89 | |
| 20260509074001 | 53 | 134 | 2.0 | 5.0 | 0.00 | 0.00 | 0.00 | 89 | |
| 20260509073901 | 53 | 129 | 2.0 | 5.0 | 0.00 | 0.00 | 0.00 | 89 | |
| 20260509073801 | 53 | 125 | 1.0 | 5.0 | 0.00 | 0.00 | 0.00 | 90 | |
| 20260509073701 | 53 | 121 | 1.0 | 4.0 | 0.00 | 0.00 | 0.00 | 90 | |
| 20260509073622 | 53 | 119 | 1.0 | 4.0 | 0.00 | 0.00 | 0.00 | 90 | |
| 20260509073501 | 52 | 113 | 1.0 | 4.0 | 0.00 | 0.00 | 0.00 | 90 | |
| 20260509073401 | 52 | 107 | 2.0 | 5.0 | 0.00 | 0.00 | 0.00 | 90 | |
| 20260509073301 | 52 | 103 | 2.0 | 5.0 | 0.00 | 0.00 | 0.00 | 90 | |
| 20260509073201 | 52 | 103 | 2.0 | 5.0 | 0.00 | 0.00 | 0.00 | 90 | |
| 20260509073101 | 52 | 102 | 2.0 | 5.0 | 0.00 | 0.00 | 0.00 | 91 | |
| 20260509073001 | 52 | 101 | 2.0 | 5.0 | 0.00 | 0.00 | 0.00 | 91 | |
| 20260509072923 | 52 | 101 | 2.0 | 5.0 | 0.00 | 0.00 | 0.00 | 91 | |
| 20260509072801 | 52 | 101 | 2.0 | 5.0 | 0.00 | 0.00 | 0.00 | 91 | |
| 20260509072701 | 52 | 101 | 2.0 | 6.0 | 0.00 | 0.00 | 0.00 | 91 | |
| 20260509072601 | 52 | 101 | 3.0 | 6.0 | 0.00 | 0.00 | 0.00 | 91 | |
| 20260509072501 | 52 | 102 | 2.0 | 6.0 | 0.00 | 0.00 | 0.00 | 91 | |
| 20260509072401 | 52 | 102 | 2.0 | 6.0 | 0.00 | 0.00 | 0.00 | 91 | |
| 20260509072301 | 52 | 105 | 2.0 | 6.0 | 0.00 | 0.00 | 0.00 | 92 | |
| 20260509072201 | 52 | 105 | 3.0 | 6.0 | 0.00 | 0.00 | 0.00 | 92 | |
| 20260509072122 | 52 | 105 | 3.0 | 6.0 | 0.00 | 0.00 | 0.00 | 92 | |
| 20260509072001 | 52 | 104 | 3.0 | 6.0 | 0.00 | 0.00 | 0.00 | 92 | |
| 20260509071922 | 52 | 104 | 3.0 | 6.0 | 0.00 | 0.00 | 0.00 | 92 | |
| 20260509071801 | 52 | 104 | 3.0 | 6.0 | 0.00 | 0.00 | 0.00 | 92 | |
| 20260509071722 | 52 | 105 | 2.0 | 6.0 | 0.00 | 0.00 | 0.00 | 92 | |
| 20260509071601 | 51 | 105 | 2.0 | 6.0 | 0.00 | 0.00 | 0.00 | 92 | |
| 20260509071501 | 51 | 105 | 2.0 | 6.0 | 0.00 | 0.00 | 0.00 | 92 | |
| 20260509071401 | 51 | 104 | 2.0 | 6.0 | 0.00 | 0.00 | 0.00 | 92 | |
| 20260509071301 | 51 | 104 | 2.0 | 6.0 | 0.00 | 0.00 | 0.00 | 92 | |
| 20260509071201 | 51 | 104 | 2.0 | 6.0 | 0.00 | 0.00 | 0.00 | 92 | |
| 20260509071101 | 51 | 103 | 2.0 | 6.0 | 0.00 | 0.00 | 0.00 | 92 | |
| 20260509071001 | 51 | 104 | 2.0 | 5.0 | 0.00 | 0.00 | 0.00 | 93 | |
| 20260509070901 | 51 | 101 | 3.0 | 6.0 | 0.00 | 0.00 | 0.00 | 92 | |
| 20260509070801 | 51 | 101 | 3.0 | 6.0 | 0.00 | 0.00 | 0.00 | 92 | |
| 20260509070702 | 51 | 100 | 3.0 | 6.0 | 0.00 | 0.00 | 0.00 | 92 | |
| 20260509070622 | 51 | 99 | 4.0 | 6.0 | 0.00 | 0.00 | 0.00 | 92 | |
| 20260509070501 | 51 | 98 | 4.0 | 6.0 | 0.00 | 0.00 | 0.00 | 93 | |
| 20260509070401 | 51 | 98 | 4.0 | 7.0 | 0.00 | 0.00 | 0.00 | 93 | |
| 20260509070322 | 51 | 98 | 4.0 | 7.0 | 0.00 | 0.00 | 0.00 | 93 | |
| 20260509070201 | 51 | 100 | 4.0 | 7.0 | 0.00 | 0.00 | 0.00 | 93 | |
| 20260509070001 | 51 | 103 | 4.0 | 7.0 | 0.00 | 0.00 | 0.00 | 93 | |
| 20260509065901 | 51 | 104 | 4.0 | 7.0 | 0.00 | 0.00 | 0.00 | 93 | |
| 20260509065801 | 51 | 104 | 4.0 | 7.0 | 0.00 | 0.00 | 0.00 | 93 | |
| 20260509065701 | 51 | 105 | 4.0 | 7.0 | 0.00 | 0.00 | 0.00 | 93 | |
| 20260509065601 | 50 | 105 | 4.0 | 7.0 | 0.00 | 0.00 | 0.00 | 93 | |
| 20260509065501 | 50 | 107 | 4.0 | 7.0 | 0.00 | 0.00 | 0.00 | 93 | |
| 20260509065401 | 50 | 106 | 4.0 | 6.0 | 0.00 | 0.00 | 0.00 | 93 | |
| 20260509065301 | 50 | 107 | 4.0 | 6.0 | 0.00 | 0.00 | 0.00 | 93 | |
| 20260509065201 | 50 | 106 | 4.0 | 6.0 | 0.00 | 0.00 | 0.00 | 93 | |
| 20260509065101 | 50 | 106 | 4.0 | 6.0 | 0.00 | 0.00 | 0.00 | 93 | |
| 20260509065022 | 50 | 106 | 4.0 | 6.0 | 0.00 | 0.00 | 0.00 | 93 | |
| 20260509064901 | 50 | 108 | 4.0 | 6.0 | 0.00 | 0.00 | 0.00 | 93 | |
| 20260509064801 | 50 | 110 | 4.0 | 6.0 | 0.00 | 0.00 | 0.00 | 93 | |
| 20260509064701 | 50 | 111 | 4.0 | 6.0 | 0.00 | 0.00 | 0.00 | 93 | |
| 20260509064601 | 50 | 111 | 4.0 | 6.0 | 0.00 | 0.00 | 0.00 | 93 | |
| 20260509064501 | 50 | 112 | 4.0 | 6.0 | 0.00 | 0.00 | 0.00 | 93 | |
| 20260509064401 | 50 | 112 | 4.0 | 6.0 | 0.00 | 0.00 | 0.00 | 93 | |
| 20260509064301 | 50 | 112 | 4.0 | 6.0 | 0.00 | 0.00 | 0.00 | 93 | |
| 20260509064222 | 50 | 112 | 4.0 | 6.0 | 0.00 | 0.00 | 0.00 | 93 | |
| 20260509064101 | 50 | 110 | 4.0 | 6.0 | 0.00 | 0.00 | 0.00 | 93 | |
| 20260509064001 | 50 | 110 | 4.0 | 6.0 | 0.00 | 0.00 | 0.00 | 93 | |
| 20260509063901 | 50 | 109 | 4.0 | 6.0 | 0.00 | 0.00 | 0.00 | 93 | |
| 20260509063801 | 50 | 107 | 4.0 | 6.0 | 0.00 | 0.00 | 0.00 | 93 | |
| 20260509063701 | 50 | 107 | 4.0 | 6.0 | 0.00 | 0.00 | 0.00 | 93 | |
| 20260509063601 | 50 | 106 | 4.0 | 6.0 | 0.00 | 0.00 | 0.00 | 93 | |
| 20260509063501 | 50 | 105 | 4.0 | 7.0 | 0.00 | 0.00 | 0.00 | 93 | |
| 20260509063422 | 50 | 104 | 5.0 | 7.0 | 0.00 | 0.00 | 0.00 | 93 | |
| 20260509063301 | 50 | 103 | 4.0 | 7.0 | 0.00 | 0.00 | 0.00 | 93 | |
| 20260509063202 | 50 | 102 | 4.0 | 7.0 | 0.00 | 0.00 | 0.00 | 93 | |
| 20260509063101 | 50 | 103 | 4.0 | 7.0 | 0.00 | 0.00 | 0.00 | 93 | |
| 20260509063002 | 50 | 102 | 4.0 | 7.0 | 0.00 | 0.00 | 0.00 | 93 | |
| 20260509062901 | 50 | 99 | 4.0 | 7.0 | 0.00 | 0.00 | 0.00 | 93 | |
| 20260509062802 | 50 | 98 | 4.0 | 7.0 | 0.00 | 0.00 | 0.00 | 93 | |
| 20260509062702 | 50 | 97 | 4.0 | 7.0 | 0.00 | 0.00 | 0.00 | 93 | |
| 20260509062601 | 50 | 98 | 4.0 | 7.0 | 0.00 | 0.00 | 0.00 | 93 | |
| 20260509062501 | 50 | 98 | 4.0 | 7.0 | 0.00 | 0.00 | 0.00 | 93 | |
| 20260509062401 | 50 | 98 | 4.0 | 6.0 | 0.00 | 0.00 | 0.00 | 93 | |
| 20260509062301 | 50 | 97 | 4.0 | 6.0 | 0.00 | 0.00 | 0.00 | 93 | |
| 20260509062222 | 50 | 97 | 4.0 | 6.0 | 0.00 | 0.00 | 0.00 | 93 | |
| 20260509062102 | 50 | 94 | 4.0 | 6.0 | 0.00 | 0.00 | 0.00 | 93 | |
| 20260509062002 | 50 | 94 | 4.0 | 6.0 | 0.00 | 0.00 | 0.00 | 93 | |
| 20260509061901 | 50 | 93 | 4.0 | 6.0 | 0.00 | 0.00 | 0.00 | 93 | |
| 20260509061822 | 50 | 94 | 4.0 | 6.0 | 0.00 | 0.00 | 0.00 | 93 | |
| 20260509061701 | 50 | 94 | 4.0 | 6.0 | 0.00 | 0.00 | 0.00 | 93 | |
| 20260509061602 | 50 | 94 | 4.0 | 6.0 | 0.00 | 0.00 | 0.00 | 93 | |
| 20260509061501 | 49 | 92 | 4.0 | 6.0 | 0.00 | 0.00 | 0.00 | 93 | |
| 20260509061401 | 49 | 91 | 4.0 | 6.0 | 0.00 | 0.00 | 0.00 | 93 | |
| 20260509061301 | 49 | 91 | 4.0 | 6.0 | 0.00 | 0.00 | 0.00 | 93 | |
| 20260509061201 | 49 | 91 | 4.0 | 6.0 | 0.00 | 0.00 | 0.00 | 93 | |
| 20260509061101 | 49 | 91 | 4.0 | 6.0 | 0.00 | 0.00 | 0.00 | 93 | |
| 20260509061001 | 49 | 90 | 4.0 | 7.0 | 0.00 | 0.00 | 0.00 | 93 | |
| 20260509060901 | 49 | 90 | 5.0 | 7.0 | 0.00 | 0.00 | 0.00 | 93 | |
| 20260509060801 | 49 | 90 | 5.0 | 7.0 | 0.00 | 0.00 | 0.00 | 93 | |
| 20260509060701 | 49 | 90 | 5.0 | 7.0 | 0.00 | 0.00 | 0.00 | 93 | |
| 20260509060601 | 49 | 89 | 5.0 | 7.0 | 0.00 | 0.00 | 0.00 | 93 | |
| 20260509060522 | 49 | 90 | 4.0 | 7.0 | 0.00 | 0.01 | 0.00 | 93 | |
| 20260509060401 | 49 | 90 | 4.0 | 7.0 | 0.00 | 0.01 | 0.00 | 93 | |
| 20260509060301 | 49 | 90 | 4.0 | 7.0 | 0.00 | 0.01 | 0.00 | 93 | |
| 20260509060201 | 49 | 90 | 4.0 | 7.0 | 0.00 | 0.01 | 0.00 | 93 | |
| 20260509060122 | 49 | 91 | 4.0 | 7.0 | 0.00 | 0.01 | 0.00 | 93 | |
| 20260509060001 | 49 | 90 | 4.0 | 7.0 | 0.00 | 0.01 | 0.00 | 93 | |
| 20260509055901 | 49 | 91 | 4.0 | 6.0 | 0.00 | 0.01 | 0.00 | 93 | |
| 20260509055801 | 49 | 90 | 4.0 | 6.0 | 0.00 | 0.01 | 0.00 | 93 | |
| 20260509055722 | 49 | 89 | 4.0 | 6.0 | 0.00 | 0.01 | 0.00 | 93 | |
| 20260509055622 | 49 | 88 | 4.0 | 6.0 | 0.00 | 0.01 | 0.00 | 93 | |
| 20260509055501 | 49 | 87 | 4.0 | 6.0 | 0.00 | 0.01 | 0.00 | 93 | |
| 20260509055401 | 49 | 87 | 3.0 | 6.0 | 0.00 | 0.01 | 0.00 | 93 | |
| 20260509055301 | 49 | 85 | 3.0 | 6.0 | 0.00 | 0.01 | 0.00 | 93 | |
| 20260509055201 | 49 | 84 | 3.0 | 6.0 | 0.00 | 0.01 | 0.00 | 93 | |
| 20260509055101 | 49 | 83 | 3.0 | 6.0 | 0.00 | 0.01 | 0.00 | 93 | |
| 20260509055001 | 49 | 83 | 3.0 | 6.0 | 0.00 | 0.01 | 0.00 | 93 | |
| 20260509054901 | 49 | 83 | 3.0 | 6.0 | 0.00 | 0.01 | 0.00 | 93 | |
| 20260509054801 | 49 | 83 | 3.0 | 6.0 | 0.00 | 0.01 | 0.00 | 93 | |
| 20260509054701 | 49 | 84 | 3.0 | 6.0 | 0.00 | 0.01 | 0.00 | 93 | |
| 20260509054622 | 49 | 85 | 3.0 | 6.0 | 0.00 | 0.01 | 0.00 | 93 | |
| 20260509054501 | 49 | 86 | 3.0 | 6.0 | 0.00 | 0.01 | 0.00 | 93 | |
| 20260509054401 | 49 | 86 | 4.0 | 6.0 | 0.00 | 0.01 | 0.00 | 93 | |
| 20260509054301 | 49 | 87 | 4.0 | 6.0 | 0.00 | 0.01 | 0.00 | 93 | |
| 20260509054201 | 49 | 88 | 4.0 | 6.0 | 0.00 | 0.01 | 0.00 | 93 | |
| 20260509054101 | 49 | 90 | 4.0 | 6.0 | 0.00 | 0.01 | 0.00 | 93 | |
| 20260509054001 | 49 | 90 | 4.0 | 6.0 | 0.00 | 0.01 | 0.00 | 93 | |
| 20260509053901 | 49 | 90 | 4.0 | 6.0 | 0.00 | 0.01 | 0.00 | 93 | |
| 20260509053801 | 49 | 91 | 4.0 | 6.0 | 0.00 | 0.01 | 0.00 | 93 | |
| 20260509053701 | 49 | 91 | 4.0 | 6.0 | 0.00 | 0.01 | 0.00 | 93 | |
| 20260509053601 | 49 | 92 | 4.0 | 6.0 | 0.00 | 0.01 | 0.00 | 93 | |
| 20260509053501 | 49 | 91 | 4.0 | 7.0 | 0.00 | 0.01 | 0.00 | 93 | |
| 20260509053401 | 49 | 91 | 5.0 | 7.0 | 0.00 | 0.01 | 0.00 | 93 | |
| 20260509053322 | 49 | 91 | 5.0 | 7.0 | 0.00 | 0.01 | 0.00 | 93 | |
| 20260509053201 | 49 | 90 | 5.0 | 7.0 | 0.00 | 0.01 | 0.00 | 93 | |
| 20260509053122 | 49 | 90 | 5.0 | 7.0 | 0.00 | 0.01 | 0.00 | 93 | |
| 20260509053001 | 49 | 90 | 5.0 | 7.0 | 0.00 | 0.01 | 0.00 | 93 | |
| 20260509052901 | 49 | 90 | 5.0 | 7.0 | 0.00 | 0.01 | 0.00 | 93 | |
| 20260509052801 | 49 | 90 | 5.0 | 7.0 | 0.00 | 0.01 | 0.00 | 93 | |
| 20260509052701 | 49 | 90 | 5.0 | 7.0 | 0.00 | 0.01 | 0.00 | 93 | |
| 20260509052601 | 49 | 91 | 5.0 | 7.0 | 0.00 | 0.01 | 0.00 | 93 | |
| 20260509052501 | 49 | 92 | 5.0 | 7.0 | 0.00 | 0.01 | 0.00 | 93 | |
| 20260509052401 | 49 | 94 | 5.0 | 7.0 | 0.00 | 0.01 | 0.00 | 93 | |
| 20260509052301 | 49 | 95 | 4.0 | 7.0 | 0.00 | 0.01 | 0.00 | 93 | |
| 20260509052201 | 49 | 96 | 4.0 | 7.0 | 0.00 | 0.01 | 0.00 | 93 | |
| 20260509052122 | 49 | 96 | 4.0 | 7.0 | 0.00 | 0.01 | 0.00 | 93 | |
| 20260509052001 | 49 | 95 | 5.0 | 7.0 | 0.00 | 0.01 | 0.00 | 93 | |
| 20260509051901 | 49 | 94 | 5.0 | 7.0 | 0.00 | 0.01 | 0.00 | 93 | |
| 20260509051801 | 49 | 95 | 5.0 | 7.0 | 0.00 | 0.01 | 0.00 | 93 | |
| 20260509051701 | 49 | 94 | 5.0 | 6.0 | 0.00 | 0.01 | 0.00 | 93 | |
| 20260509051601 | 49 | 93 | 5.0 | 6.0 | 0.00 | 0.01 | 0.00 | 93 | |
| 20260509051501 | 49 | 92 | 4.0 | 6.0 | 0.00 | 0.01 | 0.00 | 93 | |
| 20260509051401 | 49 | 90 | 4.0 | 6.0 | 0.00 | 0.01 | 0.00 | 93 | |
| 20260509051301 | 49 | 89 | 4.0 | 6.0 | 0.00 | 0.01 | 0.00 | 93 | |
| 20260509051201 | 49 | 88 | 4.0 | 6.0 | 0.00 | 0.01 | 0.00 | 93 | |
| 20260509051101 | 49 | 88 | 4.0 | 6.0 | 0.00 | 0.01 | 0.00 | 93 | |
| 20260509051001 | 49 | 88 | 4.0 | 6.0 | 0.00 | 0.01 | 0.00 | 93 | |
| 20260509050901 | 49 | 91 | 4.0 | 7.0 | 0.00 | 0.01 | 0.00 | 93 | |
| 20260509050822 | 49 | 92 | 4.0 | 7.0 | 0.00 | 0.01 | 0.00 | 93 | |
| 20260509050722 | 49 | 92 | 4.0 | 7.0 | 0.00 | 0.01 | 0.00 | 93 | |
| 20260509050622 | 49 | 93 | 4.0 | 7.0 | 0.00 | 0.01 | 0.00 | 93 | |
| 20260509050522 | 48 | 94 | 5.0 | 7.0 | 0.00 | 0.01 | 0.00 | 93 | |
| 20260509050422 | 48 | 95 | 5.0 | 7.0 | 0.00 | 0.01 | 0.00 | 93 | |
| 20260509050301 | 48 | 97 | 5.0 | 7.0 | 0.00 | 0.01 | 0.00 | 93 | |
| 20260509050222 | 48 | 97 | 5.0 | 7.0 | 0.00 | 0.01 | 0.00 | 93 | |
| 20260509050101 | 48 | 98 | 5.0 | 7.0 | 0.00 | 0.01 | 0.00 | 93 | |
| 20260509050001 | 48 | 98 | 4.0 | 7.0 | 0.00 | 0.01 | 0.00 | 93 | |
| 20260509045901 | 48 | 98 | 4.0 | 7.0 | 0.00 | 0.01 | 0.00 | 93 | |
| 20260509045801 | 48 | 95 | 4.0 | 7.0 | 0.00 | 0.02 | 0.00 | 93 | |
| 20260509045722 | 48 | 94 | 4.0 | 7.0 | 0.00 | 0.02 | 0.00 | 93 | |
| 20260509045601 | 48 | 92 | 4.0 | 6.0 | 0.00 | 0.02 | 0.00 | 93 | |
| 20260509045501 | 48 | 90 | 3.0 | 6.0 | 0.00 | 0.02 | 0.00 | 93 | |
| 20260509045422 | 48 | 87 | 3.0 | 6.0 | 0.00 | 0.02 | 0.00 | 93 | |
| 20260509045301 | 48 | 82 | 3.0 | 6.0 | 0.00 | 0.02 | 0.00 | 93 | |
| 20260509045201 | 48 | 80 | 3.0 | 6.0 | 0.00 | 0.02 | 0.00 | 93 | |
| 20260509045101 | 48 | 77 | 3.0 | 6.0 | 0.00 | 0.02 | 0.00 | 93 | |
| 20260509045001 | 48 | 77 | 3.0 | 6.0 | 0.00 | 0.02 | 0.00 | 93 | |
| 20260509044901 | 48 | 76 | 3.0 | 6.0 | 0.00 | 0.02 | 0.00 | 93 | |
| 20260509044801 | 48 | 77 | 3.0 | 5.0 | 0.00 | 0.02 | 0.00 | 93 | |
| 20260509044701 | 48 | 79 | 3.0 | 5.0 | 0.00 | 0.02 | 0.00 | 93 | |
| 20260509044601 | 48 | 80 | 3.0 | 5.0 | 0.00 | 0.02 | 0.00 | 93 | |
| 20260509044502 | 48 | 82 | 2.0 | 5.0 | 0.00 | 0.02 | 0.00 | 93 | |
| 20260509044401 | 48 | 86 | 2.0 | 5.0 | 0.00 | 0.02 | 0.00 | 93 | |
| 20260509044301 | 48 | 90 | 2.0 | 5.0 | 0.00 | 0.02 | 0.00 | 92 | |
| 20260509044201 | 48 | 93 | 2.0 | 5.0 | 0.00 | 0.02 | 0.00 | 92 | |
| 20260509044101 | 48 | 97 | 1.0 | 5.0 | 0.00 | 0.02 | 0.00 | 92 | |
| 20260509044001 | 48 | 100 | 1.0 | 4.0 | 0.00 | 0.02 | 0.00 | 93 | |
| 20260509043922 | 48 | 100 | 1.0 | 4.0 | 0.00 | 0.02 | 0.00 | 93 | |
| 20260509043822 | 48 | 101 | 2.0 | 4.0 | 0.00 | 0.02 | 0.00 | 93 | |
| 20260509043701 | 48 | 101 | 2.0 | 5.0 | 0.00 | 0.02 | 0.00 | 93 | |
| 20260509043601 | 48 | 101 | 2.0 | 5.0 | 0.00 | 0.02 | 0.00 | 93 | |
| 20260509043501 | 48 | 101 | 2.0 | 5.0 | 0.00 | 0.02 | 0.00 | 93 | |
| 20260509043402 | 48 | 100 | 2.0 | 5.0 | 0.00 | 0.02 | 0.00 | 93 | |
| 20260509043302 | 48 | 100 | 2.0 | 5.0 | 0.00 | 0.02 | 0.00 | 92 | |
| 20260509043201 | 48 | 100 | 3.0 | 5.0 | 0.00 | 0.02 | 0.00 | 93 | |
| 20260509043101 | 48 | 100 | 3.0 | 5.0 | 0.00 | 0.02 | 0.00 | 92 | |
| 20260509043001 | 48 | 100 | 3.0 | 5.0 | 0.00 | 0.02 | 0.00 | 93 | |
| 20260509042901 | 48 | 100 | 3.0 | 5.0 | 0.00 | 0.02 | 0.00 | 93 | |
| 20260509042801 | 48 | 100 | 3.0 | 5.0 | 0.00 | 0.02 | 0.00 | 93 | |
| 20260509042701 | 48 | 100 | 3.0 | 5.0 | 0.00 | 0.02 | 0.00 | 93 | |
| 20260509042601 | 48 | 100 | 3.0 | 5.0 | 0.00 | 0.02 | 0.00 | 93 | |
| 20260509042501 | 48 | 99 | 3.0 | 6.0 | 0.00 | 0.02 | 0.00 | 93 | |
| 20260509042401 | 48 | 99 | 3.0 | 6.0 | 0.00 | 0.02 | 0.00 | 93 | |
| 20260509042301 | 48 | 100 | 3.0 | 6.0 | 0.00 | 0.02 | 0.00 | 93 | |
| 20260509042201 | 48 | 101 | 3.0 | 6.0 | 0.00 | 0.02 | 0.00 | 93 | |
| 20260509042101 | 48 | 101 | 3.0 | 6.0 | 0.00 | 0.02 | 0.00 | 93 | |
| 20260509042022 | 48 | 102 | 3.0 | 6.0 | 0.00 | 0.02 | 0.00 | 93 | |
| 20260509041902 | 48 | 101 | 3.0 | 6.0 | 0.00 | 0.02 | 0.00 | 93 | |
| 20260509041801 | 48 | 101 | 3.0 | 6.0 | 0.00 | 0.02 | 0.00 | 93 | |
| 20260509041701 | 48 | 102 | 3.0 | 6.0 | 0.00 | 0.02 | 0.00 | 93 | |
| 20260509041622 | 48 | 102 | 3.0 | 6.0 | 0.00 | 0.02 | 0.00 | 93 | |
| 20260509041501 | 48 | 104 | 3.0 | 6.0 | 0.00 | 0.02 | 0.00 | 93 | |
| 20260509041401 | 48 | 104 | 3.0 | 5.0 | 0.00 | 0.02 | 0.00 | 93 | |
| 20260509041301 | 48 | 104 | 3.0 | 5.0 | 0.00 | 0.02 | 0.00 | 93 | |
| 20260509041201 | 48 | 104 | 2.0 | 4.0 | 0.00 | 0.02 | 0.00 | 93 | |
| 20260509041101 | 48 | 104 | 2.0 | 4.0 | 0.00 | 0.02 | 0.00 | 93 | |
| 20260509041001 | 48 | 104 | 2.0 | 4.0 | 0.00 | 0.02 | 0.00 | 93 | |
| 20260509040901 | 48 | 104 | 2.0 | 4.0 | 0.00 | 0.02 | 0.00 | 93 | |
| 20260509040801 | 48 | 104 | 2.0 | 4.0 | 0.00 | 0.02 | 0.00 | 93 | |
| 20260509040701 | 48 | 104 | 2.0 | 4.0 | 0.00 | 0.02 | 0.00 | 93 | |
| 20260509040601 | 47 | 104 | 1.0 | 3.0 | 0.00 | 0.02 | 0.00 | 93 | |
| 20260509040501 | 47 | 104 | 1.0 | 3.0 | 0.00 | 0.02 | 0.00 | 93 | |
| 20260509040401 | 47 | 104 | 1.0 | 3.0 | 0.00 | 0.02 | 0.00 | 93 | |
| 20260509040301 | 47 | 104 | 1.0 | 3.0 | 0.00 | 0.02 | 0.00 | 93 | |
| 20260509040201 | 47 | 104 | 1.0 | 3.0 | 0.00 | 0.02 | 0.00 | 93 | |
| 20260509040101 | 47 | 104 | 0.0 | 3.0 | 0.00 | 0.02 | 0.00 | 93 | |
| 20260509040001 | 47 | 104 | 0.0 | 3.0 | 0.00 | 0.02 | 0.00 | 93 | |
| 20260509035901 | 47 | 104 | 0.0 | 3.0 | 0.00 | 0.02 | 0.00 | 93 | |
| 20260509035801 | 47 | 0 | 0.0 | 0.0 | 0.00 | 0.02 | 0.00 | 93 | |
| 20260509035701 | 47 | 0 | 0.0 | 0.0 | 0.00 | 0.02 | 0.00 | 93 | |
| 20260509035601 | 47 | 0 | 0.0 | 0.0 | 0.00 | 0.02 | 0.00 | 93 | |
| 20260509035501 | 47 | 0 | 0.0 | 0.0 | 0.00 | 0.02 | 0.00 | 93 | |
| 20260509035401 | 47 | 0 | 0.0 | 0.0 | 0.00 | 0.02 | 0.00 | 93 | |
| 20260509035301 | 47 | 0 | 0.0 | 0.0 | 0.00 | 0.02 | 0.00 | 93 | |
| 20260509035201 | 47 | 0 | 0.0 | 0.0 | 0.00 | 0.02 | 0.00 | 93 | |
| 20260509035101 | 47 | 0 | 0.0 | 0.0 | 0.00 | 0.02 | 0.00 | 92 | |
| 20260509035001 | 47 | 0 | 0.0 | 0.0 | 0.00 | 0.02 | 0.00 | 92 | |
| 20260509034901 | 47 | 0 | 0.0 | 0.0 | 0.00 | 0.02 | 0.00 | 92 | |
| 20260509034801 | 47 | 0 | 0.0 | 0.0 | 0.00 | 0.02 | 0.00 | 92 | |
| 20260509034701 | 47 | 0 | 0.0 | 0.0 | 0.00 | 0.02 | 0.00 | 92 | |
| 20260509034602 | 47 | 0 | 0.0 | 0.0 | 0.00 | 0.02 | 0.00 | 92 | |
| 20260509034501 | 47 | 0 | 0.0 | 0.0 | 0.00 | 0.02 | 0.00 | 92 | |
| 20260509034401 | 47 | 0 | 0.0 | 0.0 | 0.00 | 0.02 | 0.00 | 92 | |
| 20260509034301 | 47 | 0 | 0.0 | 0.0 | 0.00 | 0.02 | 0.00 | 92 | |
| 20260509034201 | 47 | 0 | 0.0 | 0.0 | 0.00 | 0.02 | 0.00 | 92 | |
| 20260509034101 | 47 | 0 | 0.0 | 0.0 | 0.00 | 0.02 | 0.00 | 92 | |
| 20260509034001 | 47 | 0 | 0.0 | 0.0 | 0.00 | 0.02 | 0.00 | 92 | |
| 20260509033922 | 47 | 0 | 0.0 | 0.0 | 0.00 | 0.02 | 0.00 | 92 | |
| 20260509033802 | 47 | 0 | 0.0 | 0.0 | 0.00 | 0.02 | 0.00 | 92 | |
| 20260509033701 | 47 | 0 | 0.0 | 0.0 | 0.00 | 0.02 | 0.00 | 92 | |
| 20260509033622 | 47 | 104 | 0.0 | 1.0 | 0.00 | 0.02 | 0.00 | 92 | |
| 20260509033501 | 47 | 104 | 0.0 | 1.0 | 0.00 | 0.02 | 0.00 | 93 | |
| 20260509033401 | 47 | 104 | 0.0 | 1.0 | 0.00 | 0.02 | 0.00 | 93 | |
| 20260509033301 | 47 | 104 | 1.0 | 2.0 | 0.00 | 0.02 | 0.00 | 93 | |
| 20260509033201 | 47 | 104 | 1.0 | 2.0 | 0.00 | 0.02 | 0.00 | 93 | |
| 20260509033101 | 47 | 104 | 1.0 | 2.0 | 0.00 | 0.02 | 0.00 | 93 | |
| 20260509033001 | 47 | 104 | 1.0 | 2.0 | 0.00 | 0.02 | 0.00 | 93 | |
| 20260509032901 | 47 | 104 | 1.0 | 2.0 | 0.00 | 0.02 | 0.00 | 93 | |
| 20260509032801 | 47 | 104 | 1.0 | 2.0 | 0.00 | 0.02 | 0.00 | 93 | |
| 20260509032701 | 47 | 104 | 1.0 | 2.0 | 0.00 | 0.02 | 0.00 | 93 | |
| 20260509032601 | 47 | 104 | 1.0 | 2.0 | 0.00 | 0.02 | 0.00 | 92 | |
| 20260509032522 | 47 | 104 | 1.0 | 2.0 | 0.00 | 0.02 | 0.00 | 92 | |
| 20260509032423 | 47 | 104 | 1.0 | 2.0 | 0.00 | 0.02 | 0.00 | 92 | |
| 20260509032322 | 47 | 104 | 0.0 | 2.0 | 0.00 | 0.02 | 0.00 | 92 | |
| 20260509032201 | 47 | 104 | 0.0 | 2.0 | 0.00 | 0.02 | 0.00 | 92 | |
| 20260509032101 | 47 | 104 | 0.0 | 2.0 | 0.00 | 0.02 | 0.00 | 92 | |
| 20260509032022 | 47 | 104 | 0.0 | 2.0 | 0.00 | 0.02 | 0.00 | 92 | |
| 20260509031901 | 47 | 104 | 0.0 | 2.0 | 0.00 | 0.02 | 0.00 | 92 | |
| 20260509031802 | 47 | 104 | 0.0 | 2.0 | 0.00 | 0.02 | 0.00 | 92 | |
| 20260509031701 | 47 | 104 | 0.0 | 2.0 | 0.00 | 0.02 | 0.00 | 92 | |
| 20260509031601 | 47 | 104 | 0.0 | 2.0 | 0.00 | 0.02 | 0.00 | 92 | |
| 20260509031501 | 48 | 104 | 0.0 | 2.0 | 0.00 | 0.02 | 0.00 | 92 | |
| 20260509031401 | 48 | 104 | 0.0 | 2.0 | 0.00 | 0.02 | 0.00 | 92 | |
| 20260509031301 | 48 | 104 | 0.0 | 2.0 | 0.00 | 0.02 | 0.00 | 92 | |
| 20260509031201 | 48 | 104 | 0.0 | 2.0 | 0.00 | 0.02 | 0.00 | 92 | |
| 20260509031122 | 48 | 104 | 0.0 | 2.0 | 0.00 | 0.02 | 0.00 | 92 | |
| 20260509031001 | 48 | 104 | 0.0 | 2.0 | 0.00 | 0.02 | 0.00 | 92 | |
| 20260509030901 | 48 | 104 | 0.0 | 2.0 | 0.00 | 0.02 | 0.00 | 92 | |
| 20260509030822 | 48 | 0 | 0.0 | 0.0 | 0.00 | 0.02 | 0.00 | 92 | |
| 20260509030701 | 48 | 0 | 0.0 | 0.0 | 0.00 | 0.02 | 0.00 | 92 | |
| 20260509030622 | 48 | 0 | 0.0 | 0.0 | 0.00 | 0.02 | 0.00 | 92 | |
| 20260509030501 | 48 | 0 | 0.0 | 0.0 | 0.00 | 0.02 | 0.00 | 92 | |
| 20260509030422 | 48 | 0 | 0.0 | 0.0 | 0.00 | 0.02 | 0.00 | 92 | |
| 20260509030322 | 48 | 0 | 0.0 | 0.0 | 0.00 | 0.02 | 0.00 | 92 | |
| 20260509030222 | 48 | 0 | 0.0 | 0.0 | 0.00 | 0.02 | 0.00 | 92 | |
| 20260509030101 | 48 | 0 | 0.0 | 0.0 | 0.00 | 0.02 | 0.00 | 92 | |
| 20260509030022 | 48 | 0 | 0.0 | 0.0 | 0.00 | 0.02 | 0.00 | 92 | |
| 20260509025901 | 48 | 0 | 0.0 | 0.0 | 0.00 | 0.02 | 0.00 | 92 | |
| 20260509025823 | 48 | 0 | 0.0 | 0.0 | 0.00 | 0.02 | 0.00 | 92 | |
| 20260509025701 | 48 | 0 | 0.0 | 0.0 | 0.00 | 0.02 | 0.00 | 92 | |
| 20260509025601 | 48 | 0 | 0.0 | 0.0 | 0.00 | 0.02 | 0.00 | 92 | |
| 20260509025501 | 48 | 0 | 0.0 | 0.0 | 0.00 | 0.02 | 0.00 | 92 | |
| 20260509025401 | 48 | 0 | 0.0 | 0.0 | 0.00 | 0.02 | 0.00 | 92 | |
| 20260509025301 | 48 | 0 | 0.0 | 0.0 | 0.00 | 0.02 | 0.00 | 92 | |
| 20260509025201 | 48 | 0 | 0.0 | 0.0 | 0.00 | 0.02 | 0.00 | 92 | |
| 20260509025101 | 48 | 0 | 0.0 | 0.0 | 0.00 | 0.02 | 0.00 | 92 | |
| 20260509025001 | 48 | 0 | 0.0 | 0.0 | 0.00 | 0.02 | 0.00 | 92 | |
| 20260509024901 | 48 | 0 | 0.0 | 0.0 | 0.00 | 0.02 | 0.00 | 92 | |
| 20260509024801 | 48 | 0 | 0.0 | 0.0 | 0.00 | 0.02 | 0.00 | 92 | |
| 20260509024701 | 48 | 0 | 0.0 | 0.0 | 0.00 | 0.02 | 0.00 | 92 | |
| 20260509024601 | 48 | 0 | 0.0 | 0.0 | 0.00 | 0.02 | 0.00 | 92 | |
| 20260509024501 | 48 | 0 | 0.0 | 0.0 | 0.00 | 0.02 | 0.00 | 92 | |
| 20260509024401 | 48 | 0 | 0.0 | 0.0 | 0.00 | 0.02 | 0.00 | 92 | |
| 20260509024301 | 48 | 0 | 0.0 | 0.0 | 0.00 | 0.02 | 0.00 | 92 | |
| 20260509024222 | 48 | 0 | 0.0 | 0.0 | 0.00 | 0.02 | 0.00 | 92 | |
| 20260509024102 | 48 | 0 | 0.0 | 0.0 | 0.00 | 0.02 | 0.00 | 92 | |
| 20260509024001 | 47 | 0 | 0.0 | 0.0 | 0.00 | 0.02 | 0.00 | 92 | |
| 20260509023901 | 47 | 0 | 0.0 | 0.0 | 0.00 | 0.02 | 0.00 | 92 | |
| 20260509023801 | 47 | 0 | 0.0 | 0.0 | 0.00 | 0.02 | 0.00 | 92 | |
| 20260509023722 | 47 | 0 | 0.0 | 0.0 | 0.00 | 0.02 | 0.00 | 92 | |
| 20260509023601 | 47 | 0 | 0.0 | 0.0 | 0.00 | 0.02 | 0.00 | 92 | |
| 20260509023522 | 47 | 0 | 0.0 | 0.0 | 0.00 | 0.02 | 0.00 | 92 | |
| 20260509023401 | 47 | 0 | 0.0 | 0.0 | 0.00 | 0.02 | 0.00 | 92 | |
| 20260509023301 | 47 | 0 | 0.0 | 0.0 | 0.00 | 0.02 | 0.00 | 92 | |
| 20260509023201 | 47 | 0 | 0.0 | 0.0 | 0.00 | 0.02 | 0.00 | 92 | |
| 20260509023101 | 47 | 0 | 0.0 | 0.0 | 0.00 | 0.02 | 0.00 | 92 | |
| 20260509023001 | 47 | 0 | 0.0 | 0.0 | 0.00 | 0.02 | 0.00 | 92 | |
| 20260509022901 | 47 | 0 | 0.0 | 0.0 | 0.00 | 0.02 | 0.00 | 92 | |
| 20260509022801 | 47 | 0 | 0.0 | 0.0 | 0.00 | 0.02 | 0.00 | 93 | |
| 20260509022701 | 47 | 0 | 0.0 | 0.0 | 0.00 | 0.02 | 0.00 | 93 | |
| 20260509022601 | 47 | 0 | 0.0 | 0.0 | 0.00 | 0.02 | 0.00 | 92 | |
| 20260509022501 | 47 | 0 | 0.0 | 0.0 | 0.00 | 0.02 | 0.00 | 93 | |
| 20260509022422 | 47 | 0 | 0.0 | 0.0 | 0.00 | 0.02 | 0.00 | 93 | |
| 20260509022301 | 47 | 0 | 0.0 | 0.0 | 0.00 | 0.02 | 0.00 | 93 | |
| 20260509022201 | 47 | 0 | 0.0 | 0.0 | 0.00 | 0.02 | 0.00 | 93 | |
| 20260509022101 | 47 | 0 | 0.0 | 0.0 | 0.00 | 0.02 | 0.00 | 93 | |
| 20260509022001 | 47 | 0 | 0.0 | 0.0 | 0.00 | 0.02 | 0.00 | 93 | |
| 20260509021901 | 47 | 0 | 0.0 | 0.0 | 0.00 | 0.02 | 0.00 | 93 | |
| 20260509021801 | 47 | 0 | 0.0 | 0.0 | 0.00 | 0.02 | 0.00 | 93 | |
| 20260509021702 | 47 | 0 | 0.0 | 0.0 | 0.00 | 0.02 | 0.00 | 93 | |
| 20260509021601 | 47 | 0 | 0.0 | 0.0 | 0.00 | 0.02 | 0.00 | 93 | |
| 20260509021501 | 47 | 0 | 0.0 | 0.0 | 0.00 | 0.02 | 0.00 | 93 | |
| 20260509021401 | 47 | 0 | 0.0 | 0.0 | 0.00 | 0.02 | 0.00 | 92 | |
| 20260509021301 | 47 | 0 | 0.0 | 0.0 | 0.00 | 0.02 | 0.00 | 92 | |
| 20260509021201 | 46 | 0 | 0.0 | 0.0 | 0.00 | 0.02 | 0.00 | 92 | |
| 20260509021122 | 46 | 0 | 0.0 | 0.0 | 0.00 | 0.02 | 0.00 | 92 | |
| 20260509021001 | 46 | 0 | 0.0 | 0.0 | 0.00 | 0.02 | 0.00 | 92 | |
| 20260509020922 | 46 | 0 | 0.0 | 0.0 | 0.00 | 0.02 | 0.00 | 92 | |
| 20260509020801 | 46 | 0 | 0.0 | 0.0 | 0.00 | 0.02 | 0.00 | 92 | |
| 20260509020722 | 46 | 0 | 0.0 | 0.0 | 0.00 | 0.02 | 0.00 | 92 | |
| 20260509020601 | 46 | 0 | 0.0 | 0.0 | 0.00 | 0.02 | 0.00 | 92 | |
| 20260509020501 | 46 | 0 | 0.0 | 0.0 | 0.00 | 0.02 | 0.00 | 92 | |
| 20260509020401 | 46 | 0 | 0.0 | 0.0 | 0.00 | 0.02 | 0.00 | 91 | |
| 20260509020301 | 46 | 0 | 0.0 | 0.0 | 0.00 | 0.02 | 0.00 | 91 | |
| 20260509020201 | 46 | 0 | 0.0 | 0.0 | 0.00 | 0.02 | 0.00 | 91 | |
| 20260509020122 | 46 | 0 | 0.0 | 0.0 | 0.00 | 0.02 | 0.00 | 91 | |
| 20260509020001 | 46 | 0 | 0.0 | 0.0 | 0.00 | 0.02 | 0.00 | 91 | |
| 20260509015901 | 46 | 0 | 0.0 | 0.0 | 0.00 | 0.02 | 0.00 | 90 | |
| 20260509015801 | 46 | 0 | 0.0 | 0.0 | 0.00 | 0.02 | 0.00 | 90 | |
| 20260509015701 | 46 | 0 | 0.0 | 0.0 | 0.00 | 0.02 | 0.00 | 90 | |
| 20260509015601 | 46 | 0 | 0.0 | 0.0 | 0.00 | 0.02 | 0.00 | 90 | |
| 20260509015501 | 47 | 0 | 0.0 | 0.0 | 0.00 | 0.02 | 0.00 | 91 | |
| 20260509015401 | 47 | 0 | 0.0 | 0.0 | 0.00 | 0.02 | 0.00 | 91 | |
| 20260509015301 | 47 | 0 | 0.0 | 0.0 | 0.00 | 0.02 | 0.00 | 91 | |
| 20260509015201 | 47 | 0 | 0.0 | 0.0 | 0.00 | 0.02 | 0.00 | 91 | |
| 20260509015102 | 47 | 0 | 0.0 | 0.0 | 0.00 | 0.02 | 0.00 | 91 | |
| 20260509015001 | 47 | 0 | 0.0 | 0.0 | 0.00 | 0.02 | 0.00 | 91 | |
| 20260509014901 | 47 | 104 | 0.0 | 1.0 | 0.00 | 0.02 | 0.00 | 92 | |
| 20260509014801 | 47 | 104 | 0.0 | 1.0 | 0.00 | 0.02 | 0.00 | 92 | |
| 20260509014701 | 47 | 104 | 0.0 | 2.0 | 0.00 | 0.02 | 0.00 | 92 | |
| 20260509014601 | 47 | 104 | 0.0 | 2.0 | 0.00 | 0.02 | 0.00 | 92 | |
| 20260509014501 | 47 | 104 | 1.0 | 2.0 | 0.00 | 0.02 | 0.00 | 91 | |
| 20260509014422 | 47 | 104 | 1.0 | 2.0 | 0.00 | 0.02 | 0.00 | 91 | |
| 20260509014301 | 47 | 104 | 1.0 | 2.0 | 0.00 | 0.02 | 0.00 | 91 | |
| 20260509014201 | 47 | 104 | 1.0 | 2.0 | 0.00 | 0.02 | 0.00 | 91 | |
| 20260509014101 | 47 | 104 | 1.0 | 2.0 | 0.00 | 0.02 | 0.00 | 91 | |
| 20260509014022 | 47 | 104 | 1.0 | 2.0 | 0.00 | 0.02 | 0.00 | 91 | |
| 20260509013901 | 47 | 104 | 1.0 | 2.0 | 0.00 | 0.02 | 0.00 | 91 | |
| 20260509013801 | 47 | 104 | 1.0 | 2.0 | 0.00 | 0.02 | 0.00 | 91 | |
| 20260509013701 | 47 | 104 | 1.0 | 2.0 | 0.00 | 0.02 | 0.00 | 91 | |
| 20260509013601 | 47 | 104 | 1.0 | 2.0 | 0.00 | 0.02 | 0.00 | 91 | |
| 20260509013522 | 47 | 104 | 1.0 | 2.0 | 0.00 | 0.02 | 0.00 | 91 | |
| 20260509013401 | 47 | 104 | 1.0 | 2.0 | 0.00 | 0.02 | 0.00 | 91 | |
| 20260509013322 | 47 | 104 | 1.0 | 2.0 | 0.00 | 0.02 | 0.00 | 91 | |
| 20260509013201 | 47 | 104 | 1.0 | 2.0 | 0.00 | 0.02 | 0.00 | 91 | |
| 20260509013101 | 47 | 104 | 1.0 | 2.0 | 0.00 | 0.02 | 0.00 | 91 | |
| 20260509013001 | 47 | 104 | 0.0 | 2.0 | 0.00 | 0.02 | 0.00 | 91 | |
| 20260509012901 | 47 | 104 | 0.0 | 2.0 | 0.00 | 0.02 | 0.00 | 91 | |
| 20260509012822 | 47 | 104 | 0.0 | 2.0 | 0.00 | 0.02 | 0.00 | 91 | |
| 20260509012722 | 47 | 104 | 0.0 | 1.0 | 0.00 | 0.02 | 0.00 | 91 | |
| 20260509012622 | 47 | 0 | 0.0 | 0.0 | 0.00 | 0.02 | 0.00 | 91 | |
| 20260509012522 | 47 | 0 | 0.0 | 0.0 | 0.00 | 0.02 | 0.00 | 91 | |
| 20260509012401 | 47 | 0 | 0.0 | 0.0 | 0.00 | 0.02 | 0.00 | 91 | |
| 20260509012301 | 46 | 0 | 0.0 | 0.0 | 0.00 | 0.02 | 0.00 | 91 | |
| 20260509012201 | 46 | 0 | 0.0 | 0.0 | 0.00 | 0.02 | 0.00 | 91 | |
| 20260509012101 | 46 | 0 | 0.0 | 0.0 | 0.00 | 0.02 | 0.00 | 91 | |
| 20260509012001 | 46 | 0 | 0.0 | 0.0 | 0.00 | 0.02 | 0.00 | 90 | |
| 20260509011901 | 46 | 104 | 0.0 | 1.0 | 0.00 | 0.02 | 0.00 | 90 | |
| 20260509011801 | 46 | 104 | 0.0 | 1.0 | 0.00 | 0.02 | 0.00 | 90 | |
| 20260509011702 | 46 | 104 | 0.0 | 2.0 | 0.00 | 0.02 | 0.00 | 90 | |
| 20260509011601 | 46 | 104 | 0.0 | 2.0 | 0.00 | 0.02 | 0.00 | 89 | |
| 20260509011501 | 46 | 104 | 0.0 | 2.0 | 0.00 | 0.02 | 0.00 | 89 | |
| 20260509011401 | 47 | 104 | 0.0 | 2.0 | 0.00 | 0.02 | 0.00 | 89 | |
| 20260509011301 | 47 | 104 | 0.0 | 2.0 | 0.00 | 0.02 | 0.00 | 89 | |
| 20260509011201 | 47 | 104 | 0.0 | 2.0 | 0.00 | 0.02 | 0.00 | 89 | |
| 20260509011101 | 47 | 104 | 0.0 | 2.0 | 0.00 | 0.02 | 0.00 | 89 | |
| 20260509011022 | 47 | 104 | 0.0 | 2.0 | 0.00 | 0.02 | 0.00 | 89 | |
| 20260509010901 | 47 | 104 | 0.0 | 2.0 | 0.00 | 0.02 | 0.00 | 89 | |
| 20260509010801 | 47 | 104 | 0.0 | 2.0 | 0.00 | 0.02 | 0.00 | 89 | |
| 20260509010701 | 48 | 104 | 0.0 | 2.0 | 0.00 | 0.02 | 0.00 | 89 | |
| 20260509010622 | 48 | 104 | 0.0 | 2.0 | 0.00 | 0.02 | 0.00 | 89 | |
| 20260509010501 | 48 | 104 | 1.0 | 3.0 | 0.00 | 0.02 | 0.00 | 90 | |
| 20260509010401 | 48 | 104 | 1.0 | 4.0 | 0.00 | 0.02 | 0.00 | 90 | |
| 20260509010322 | 48 | 104 | 1.0 | 4.0 | 0.00 | 0.02 | 0.00 | 90 | |
| 20260509010201 | 48 | 104 | 1.0 | 4.0 | 0.00 | 0.02 | 0.00 | 90 | |
| 20260509010101 | 48 | 104 | 2.0 | 4.0 | 0.00 | 0.02 | 0.00 | 90 | |
| 20260509010001 | 48 | 104 | 2.0 | 4.0 | 0.00 | 0.02 | 0.00 | 90 | |
| 20260509005901 | 48 | 104 | 2.0 | 4.0 | 0.00 | 0.02 | 0.00 | 90 | |
| 20260509005801 | 48 | 104 | 3.0 | 4.0 | 0.00 | 0.02 | 0.00 | 90 | |
| 20260509005702 | 48 | 104 | 3.0 | 4.0 | 0.00 | 0.02 | 0.00 | 90 | |
| 20260509005601 | 48 | 104 | 3.0 | 4.0 | 0.00 | 0.02 | 0.00 | 90 | |
| 20260509005502 | 48 | 104 | 3.0 | 4.0 | 0.00 | 0.02 | 0.00 | 90 | |
| 20260509005401 | 48 | 104 | 3.0 | 5.0 | 0.00 | 0.02 | 0.00 | 90 | |
| 20260509005301 | 48 | 104 | 3.0 | 5.0 | 0.00 | 0.02 | 0.00 | 90 | |
| 20260509005222 | 48 | 105 | 4.0 | 5.0 | 0.00 | 0.02 | 0.00 | 90 | |
| 20260509005101 | 48 | 105 | 4.0 | 5.0 | 0.00 | 0.02 | 0.00 | 90 | |
| 20260509005001 | 48 | 105 | 3.0 | 5.0 | 0.00 | 0.02 | 0.00 | 90 | |
| 20260509004901 | 48 | 105 | 3.0 | 5.0 | 0.00 | 0.02 | 0.00 | 90 | |
| 20260509004801 | 48 | 105 | 3.0 | 5.0 | 0.00 | 0.02 | 0.00 | 90 | |
| 20260509004701 | 48 | 105 | 3.0 | 5.0 | 0.00 | 0.02 | 0.00 | 90 | |
| 20260509004602 | 48 | 105 | 3.0 | 5.0 | 0.00 | 0.02 | 0.00 | 90 | |
| 20260509004501 | 48 | 105 | 3.0 | 5.0 | 0.00 | 0.02 | 0.00 | 90 | |
| 20260509004401 | 48 | 105 | 3.0 | 6.0 | 0.00 | 0.02 | 0.00 | 90 | |
| 20260509004301 | 48 | 105 | 3.0 | 6.0 | 0.00 | 0.02 | 0.00 | 90 | |
| 20260509004201 | 48 | 106 | 3.0 | 6.0 | 0.00 | 0.02 | 0.00 | 90 | |
| 20260509004122 | 48 | 107 | 3.0 | 6.0 | 0.00 | 0.02 | 0.00 | 90 | |
| 20260509004022 | 48 | 107 | 3.0 | 6.0 | 0.00 | 0.02 | 0.00 | 90 | |
| 20260509003901 | 48 | 108 | 3.0 | 6.0 | 0.00 | 0.02 | 0.00 | 90 | |
| 20260509003801 | 48 | 109 | 3.0 | 6.0 | 0.00 | 0.02 | 0.00 | 90 | |
| 20260509003701 | 48 | 109 | 3.0 | 6.0 | 0.00 | 0.02 | 0.00 | 90 | |
| 20260509003601 | 48 | 110 | 3.0 | 6.0 | 0.00 | 0.02 | 0.00 | 90 | |
| 20260509003522 | 48 | 110 | 3.0 | 6.0 | 0.00 | 0.02 | 0.00 | 90 | |
| 20260509003401 | 48 | 112 | 2.0 | 6.0 | 0.00 | 0.02 | 0.00 | 90 | |
| 20260509003301 | 48 | 113 | 2.0 | 6.0 | 0.00 | 0.02 | 0.00 | 90 | |
| 20260509003202 | 48 | 114 | 2.0 | 5.0 | 0.00 | 0.02 | 0.00 | 90 | |
| 20260509003101 | 48 | 114 | 2.0 | 5.0 | 0.00 | 0.02 | 0.00 | 90 | |
| 20260509003001 | 48 | 114 | 1.0 | 5.0 | 0.00 | 0.02 | 0.00 | 90 | |
| 20260509002901 | 48 | 114 | 1.0 | 5.0 | 0.00 | 0.02 | 0.00 | 90 | |
| 20260509002801 | 48 | 114 | 1.0 | 4.0 | 0.00 | 0.02 | 0.00 | 90 | |
| 20260509002701 | 48 | 114 | 1.0 | 3.0 | 0.00 | 0.02 | 0.00 | 90 | |
| 20260509002601 | 48 | 114 | 1.0 | 4.0 | 0.00 | 0.02 | 0.00 | 90 | |
| 20260509002501 | 48 | 114 | 1.0 | 5.0 | 0.00 | 0.02 | 0.00 | 89 | |
| 20260509002401 | 49 | 115 | 1.0 | 5.0 | 0.00 | 0.02 | 0.00 | 89 | |
| 20260509002301 | 49 | 115 | 2.0 | 5.0 | 0.00 | 0.02 | 0.00 | 89 | |
| 20260509002201 | 49 | 116 | 2.0 | 5.0 | 0.00 | 0.02 | 0.00 | 89 | |
| 20260509002122 | 49 | 116 | 2.0 | 5.0 | 0.00 | 0.02 | 0.00 | 90 | |
| 20260509002001 | 49 | 117 | 2.0 | 5.0 | 0.00 | 0.02 | 0.00 | 90 | |
| 20260509001901 | 49 | 117 | 2.0 | 5.0 | 0.00 | 0.02 | 0.00 | 90 | |
| 20260509001801 | 49 | 117 | 2.0 | 5.0 | 0.00 | 0.02 | 0.00 | 90 | |
| 20260509001722 | 49 | 117 | 2.0 | 5.0 | 0.00 | 0.02 | 0.00 | 90 | |
| 20260509001601 | 49 | 117 | 2.0 | 5.0 | 0.00 | 0.02 | 0.00 | 90 | |
| 20260509001501 | 49 | 117 | 2.0 | 5.0 | 0.00 | 0.02 | 0.00 | 90 | |
| 20260509001401 | 49 | 116 | 2.0 | 5.0 | 0.00 | 0.02 | 0.00 | 90 | |
| 20260509001301 | 49 | 115 | 2.0 | 5.0 | 0.00 | 0.02 | 0.00 | 89 | |
| 20260509001201 | 49 | 115 | 2.0 | 5.0 | 0.00 | 0.02 | 0.00 | 89 | |
| 20260509001101 | 49 | 114 | 1.0 | 5.0 | 0.00 | 0.02 | 0.00 | 89 | |
| 20260509001001 | 49 | 113 | 1.0 | 5.0 | 0.00 | 0.02 | 0.00 | 89 | |
| 20260509000922 | 49 | 112 | 1.0 | 5.0 | 0.00 | 0.02 | 0.00 | 89 | |
| 20260509000801 | 49 | 112 | 1.0 | 5.0 | 0.00 | 0.02 | 0.00 | 89 | |
| 20260509000701 | 49 | 112 | 1.0 | 5.0 | 0.00 | 0.02 | 0.00 | 89 | |
| 20260509000622 | 49 | 111 | 0.0 | 4.0 | 0.00 | 0.02 | 0.00 | 89 | |
| 20260509000501 | 49 | 111 | 0.0 | 3.0 | 0.00 | 0.02 | 0.00 | 89 | |
| 20260509000403 | 49 | 111 | 0.0 | 2.0 | 0.00 | 0.02 | 0.00 | 89 | |
| 20260509000322 | 49 | 110 | 0.0 | 1.0 | 0.00 | 0.02 | 0.00 | 89 | |
| 20260509000201 | 49 | 110 | 0.0 | 1.0 | 0.00 | 0.02 | 0.00 | 89 | |
| 20260509000122 | 49 | 110 | 0.0 | 1.0 | 0.00 | 0.02 | 0.00 | 89 | |
| 20260509000001 | 49 | 110 | 0.0 | 1.0 | 0.00 | 0.02 | 0.00 | 89 | |
| 20260508235901 | 49 | 110 | 0.0 | 1.0 | 0.00 | 0.02 | 0.00 | 89 | |
| 20260508235801 | 49 | 106 | 0.0 | 2.0 | 0.00 | 0.02 | 0.00 | 89 | |
| 20260508235701 | 49 | 106 | 0.0 | 2.0 | 0.00 | 0.02 | 0.00 | 89 | |
| 20260508235601 | 49 | 106 | 0.0 | 3.0 | 0.00 | 0.02 | 0.00 | 89 | |
| 20260508235501 | 49 | 106 | 1.0 | 3.0 | 0.00 | 0.02 | 0.00 | 89 | |
| 20260508235401 | 49 | 106 | 1.0 | 4.0 | 0.00 | 0.02 | 0.00 | 89 | |
| 20260508235301 | 49 | 105 | 1.0 | 4.0 | 0.00 | 0.02 | 0.00 | 89 | |
| 20260508235201 | 49 | 105 | 2.0 | 5.0 | 0.00 | 0.02 | 0.00 | 89 | |
| 20260508235101 | 49 | 105 | 2.0 | 5.0 | 0.00 | 0.02 | 0.00 | 89 | |
| 20260508235001 | 49 | 106 | 2.0 | 5.0 | 0.00 | 0.02 | 0.00 | 89 | |
| 20260508234923 | 49 | 106 | 3.0 | 5.0 | 0.00 | 0.02 | 0.00 | 89 | |
| 20260508234802 | 49 | 106 | 3.0 | 5.0 | 0.00 | 0.02 | 0.00 | 89 | |
| 20260508234701 | 50 | 106 | 3.0 | 5.0 | 0.00 | 0.02 | 0.00 | 89 | |
| 20260508234601 | 50 | 106 | 3.0 | 5.0 | 0.00 | 0.02 | 0.00 | 89 | |
| 20260508234501 | 50 | 107 | 3.0 | 5.0 | 0.00 | 0.02 | 0.00 | 89 | |
| 20260508234401 | 50 | 107 | 3.0 | 5.0 | 0.00 | 0.02 | 0.00 | 89 | |
| 20260508234301 | 50 | 107 | 4.0 | 5.0 | 0.00 | 0.02 | 0.00 | 89 | |
| 20260508234201 | 50 | 107 | 4.0 | 5.0 | 0.00 | 0.02 | 0.00 | 89 | |
| 20260508234122 | 50 | 107 | 4.0 | 5.0 | 0.00 | 0.02 | 0.00 | 89 | |
| 20260508234001 | 50 | 107 | 4.0 | 5.0 | 0.00 | 0.02 | 0.00 | 89 | |
| 20260508233901 | 50 | 107 | 4.0 | 5.0 | 0.00 | 0.02 | 0.00 | 89 | |
| 20260508233801 | 50 | 107 | 4.0 | 6.0 | 0.00 | 0.02 | 0.00 | 89 | |
| 20260508233701 | 50 | 107 | 4.0 | 6.0 | 0.00 | 0.02 | 0.00 | 89 | |
| 20260508233601 | 50 | 106 | 4.0 | 6.0 | 0.00 | 0.02 | 0.00 | 89 | |
| 20260508233501 | 50 | 106 | 4.0 | 6.0 | 0.00 | 0.02 | 0.00 | 90 | |
| 20260508233422 | 50 | 105 | 4.0 | 6.0 | 0.00 | 0.02 | 0.00 | 90 | |
| 20260508233301 | 50 | 105 | 5.0 | 6.0 | 0.00 | 0.02 | 0.00 | 89 | |
| 20260508233201 | 50 | 105 | 5.0 | 6.0 | 0.00 | 0.02 | 0.00 | 89 | |
| 20260508233122 | 50 | 104 | 5.0 | 6.0 | 0.00 | 0.02 | 0.00 | 89 | |
| 20260508233001 | 50 | 104 | 5.0 | 6.0 | 0.00 | 0.02 | 0.00 | 89 | |
| 20260508232901 | 50 | 103 | 5.0 | 6.0 | 0.00 | 0.02 | 0.00 | 89 | |
| 20260508232822 | 50 | 103 | 5.0 | 6.0 | 0.00 | 0.02 | 0.00 | 89 | |
| 20260508232701 | 50 | 103 | 5.0 | 7.0 | 0.00 | 0.02 | 0.00 | 89 | |
| 20260508232601 | 50 | 103 | 5.0 | 7.0 | 0.00 | 0.02 | 0.00 | 89 | |
| 20260508232501 | 50 | 103 | 5.0 | 7.0 | 0.00 | 0.02 | 0.00 | 89 | |
| 20260508232401 | 50 | 104 | 4.0 | 7.0 | 0.00 | 0.02 | 0.00 | 89 | |
| 20260508232301 | 50 | 105 | 4.0 | 7.0 | 0.00 | 0.02 | 0.00 | 89 | |
| 20260508232201 | 50 | 106 | 4.0 | 7.0 | 0.00 | 0.02 | 0.00 | 89 | |
| 20260508232101 | 50 | 106 | 4.0 | 7.0 | 0.00 | 0.02 | 0.00 | 89 | |
| 20260508232022 | 50 | 106 | 4.0 | 7.0 | 0.00 | 0.02 | 0.00 | 89 | |
| 20260508231901 | 50 | 106 | 4.0 | 7.0 | 0.00 | 0.02 | 0.00 | 89 | |
| 20260508231801 | 50 | 106 | 4.0 | 6.0 | 0.00 | 0.02 | 0.00 | 89 | |
| 20260508231701 | 50 | 107 | 4.0 | 6.0 | 0.00 | 0.02 | 0.00 | 89 | |
| 20260508231601 | 50 | 107 | 4.0 | 7.0 | 0.00 | 0.02 | 0.00 | 89 | |
| 20260508231501 | 50 | 106 | 5.0 | 7.0 | 0.00 | 0.02 | 0.00 | 89 | |
| 20260508231401 | 50 | 106 | 5.0 | 7.0 | 0.00 | 0.02 | 0.00 | 89 | |
| 20260508231301 | 50 | 105 | 5.0 | 7.0 | 0.00 | 0.02 | 0.00 | 89 | |
| 20260508231201 | 50 | 104 | 5.0 | 7.0 | 0.00 | 0.02 | 0.00 | 89 | |
| 20260508231102 | 50 | 105 | 5.0 | 7.0 | 0.00 | 0.02 | 0.00 | 89 | |
| 20260508231001 | 50 | 106 | 5.0 | 7.0 | 0.00 | 0.02 | 0.00 | 89 | |
| 20260508230901 | 50 | 107 | 5.0 | 7.0 | 0.00 | 0.02 | 0.00 | 89 | |
| 20260508230801 | 50 | 108 | 4.0 | 7.0 | 0.00 | 0.02 | 0.00 | 89 | |
| 20260508230722 | 50 | 109 | 4.0 | 7.0 | 0.00 | 0.02 | 0.00 | 89 | |
| 20260508230601 | 50 | 110 | 4.0 | 7.0 | 0.00 | 0.02 | 0.00 | 89 | |
| 20260508230501 | 50 | 112 | 4.0 | 7.0 | 0.00 | 0.02 | 0.00 | 89 | |
| 20260508230401 | 50 | 114 | 4.0 | 7.0 | 0.00 | 0.02 | 0.00 | 89 | |
| 20260508230301 | 50 | 117 | 4.0 | 7.0 | 0.00 | 0.02 | 0.00 | 89 | |
| 20260508230201 | 50 | 118 | 4.0 | 7.0 | 0.00 | 0.02 | 0.00 | 88 | |
| 20260508230122 | 50 | 119 | 4.0 | 7.0 | 0.00 | 0.02 | 0.00 | 88 | |
| 20260508230022 | 50 | 120 | 4.0 | 7.0 | 0.00 | 0.02 | 0.00 | 88 | |
| 20260508225901 | 50 | 121 | 4.0 | 7.0 | 0.00 | 0.02 | 0.02 | 88 | |
| 20260508225802 | 50 | 120 | 4.0 | 7.0 | 0.00 | 0.02 | 0.02 | 88 | |
| 20260508225701 | 50 | 119 | 4.0 | 7.0 | 0.00 | 0.02 | 0.02 | 88 | |
| 20260508225601 | 50 | 119 | 4.0 | 7.0 | 0.00 | 0.02 | 0.02 | 88 | |
| 20260508225501 | 50 | 118 | 4.0 | 8.0 | 0.00 | 0.02 | 0.02 | 88 | |
| 20260508225401 | 50 | 117 | 4.0 | 8.0 | 0.00 | 0.02 | 0.02 | 88 | |
| 20260508225301 | 50 | 115 | 4.0 | 8.0 | 0.00 | 0.02 | 0.02 | 88 | |
| 20260508225201 | 50 | 115 | 4.0 | 8.0 | 0.00 | 0.02 | 0.02 | 88 | |
| 20260508225122 | 50 | 114 | 4.0 | 8.0 | 0.00 | 0.02 | 0.02 | 88 | |
| 20260508225001 | 50 | 112 | 4.0 | 8.0 | 0.00 | 0.02 | 0.02 | 88 | |
| 20260508224901 | 50 | 110 | 4.0 | 8.0 | 0.00 | 0.02 | 0.02 | 88 | |
| 20260508224801 | 50 | 109 | 4.0 | 8.0 | 0.00 | 0.02 | 0.02 | 88 | |
| 20260508224722 | 50 | 108 | 4.0 | 8.0 | 0.00 | 0.02 | 0.02 | 88 | |
| 20260508224601 | 50 | 106 | 4.0 | 8.0 | 0.00 | 0.02 | 0.02 | 88 | |
| 20260508224501 | 50 | 105 | 5.0 | 8.0 | 0.00 | 0.02 | 0.02 | 88 | |
| 20260508224401 | 50 | 104 | 5.0 | 8.0 | 0.00 | 0.02 | 0.02 | 88 | |
| 20260508224301 | 50 | 105 | 5.0 | 8.0 | 0.00 | 0.02 | 0.02 | 88 | |
| 20260508224201 | 50 | 104 | 5.0 | 8.0 | 0.00 | 0.02 | 0.02 | 88 | |
| 20260508224101 | 50 | 105 | 6.0 | 8.0 | 0.00 | 0.02 | 0.02 | 88 | |
| 20260508224001 | 50 | 105 | 6.0 | 8.0 | 0.00 | 0.02 | 0.02 | 88 | |
| 20260508223901 | 50 | 105 | 6.0 | 8.0 | 0.00 | 0.02 | 0.02 | 88 | |
| 20260508223801 | 50 | 106 | 5.0 | 8.0 | 0.00 | 0.02 | 0.02 | 88 | |
| 20260508223702 | 51 | 107 | 5.0 | 8.0 | 0.00 | 0.02 | 0.02 | 88 | |
| 20260508223601 | 51 | 107 | 5.0 | 8.0 | 0.00 | 0.02 | 0.02 | 88 | |
| 20260508223501 | 51 | 108 | 5.0 | 8.0 | 0.00 | 0.02 | 0.02 | 88 | |
| 20260508223401 | 51 | 108 | 5.0 | 8.0 | 0.00 | 0.02 | 0.02 | 87 | |
| 20260508223301 | 51 | 109 | 5.0 | 8.0 | 0.00 | 0.02 | 0.02 | 88 | |
| 20260508223201 | 51 | 110 | 5.0 | 8.0 | 0.00 | 0.02 | 0.02 | 87 | |
| 20260508223101 | 51 | 109 | 5.0 | 8.0 | 0.00 | 0.02 | 0.02 | 87 | |
| 20260508223001 | 51 | 109 | 5.0 | 8.0 | 0.00 | 0.02 | 0.02 | 87 | |
| 20260508222901 | 51 | 108 | 5.0 | 8.0 | 0.00 | 0.02 | 0.02 | 87 | |
| 20260508222822 | 51 | 109 | 5.0 | 8.0 | 0.00 | 0.02 | 0.02 | 87 | |
| 20260508222701 | 51 | 108 | 5.0 | 8.0 | 0.00 | 0.02 | 0.02 | 87 | |
| 20260508222601 | 51 | 109 | 5.0 | 8.0 | 0.00 | 0.02 | 0.02 | 87 | |
| 20260508222501 | 51 | 108 | 5.0 | 8.0 | 0.00 | 0.02 | 0.02 | 87 | |
| 20260508222402 | 51 | 110 | 5.0 | 8.0 | 0.00 | 0.02 | 0.02 | 87 | |
| 20260508222322 | 51 | 110 | 5.0 | 8.0 | 0.00 | 0.02 | 0.02 | 87 | |
| 20260508222201 | 51 | 111 | 5.0 | 8.0 | 0.00 | 0.02 | 0.02 | 87 | |
| 20260508222101 | 51 | 112 | 5.0 | 8.0 | 0.00 | 0.02 | 0.02 | 87 | |
| 20260508222001 | 51 | 114 | 5.0 | 8.0 | 0.00 | 0.02 | 0.02 | 87 | |
| 20260508221901 | 51 | 115 | 5.0 | 8.0 | 0.00 | 0.02 | 0.02 | 87 | |
| 20260508221801 | 51 | 115 | 5.0 | 8.0 | 0.00 | 0.02 | 0.02 | 87 | |
| 20260508221701 | 51 | 116 | 4.0 | 8.0 | 0.00 | 0.02 | 0.02 | 87 | |
| 20260508221601 | 51 | 117 | 4.0 | 8.0 | 0.00 | 0.02 | 0.02 | 87 | |
| 20260508221501 | 51 | 118 | 4.0 | 8.0 | 0.00 | 0.02 | 0.02 | 87 | |
| 20260508221401 | 51 | 117 | 4.0 | 8.0 | 0.00 | 0.02 | 0.02 | 87 | |
| 20260508221322 | 51 | 117 | 4.0 | 7.0 | 0.00 | 0.02 | 0.02 | 87 | |
| 20260508221201 | 51 | 116 | 4.0 | 7.0 | 0.00 | 0.02 | 0.02 | 87 | |
| 20260508221101 | 51 | 116 | 4.0 | 7.0 | 0.00 | 0.02 | 0.02 | 86 | |
| 20260508221001 | 51 | 114 | 4.0 | 7.0 | 0.00 | 0.02 | 0.02 | 87 | |
| 20260508220901 | 51 | 113 | 4.0 | 7.0 | 0.00 | 0.02 | 0.02 | 86 | |
| 20260508220822 | 51 | 113 | 4.0 | 7.0 | 0.00 | 0.02 | 0.02 | 86 | |
| 20260508220722 | 51 | 113 | 4.0 | 7.0 | 0.00 | 0.02 | 0.02 | 87 | |
| 20260508220601 | 51 | 111 | 4.0 | 7.0 | 0.00 | 0.02 | 0.02 | 86 | |
| 20260508220501 | 51 | 111 | 4.0 | 7.0 | 0.00 | 0.02 | 0.02 | 86 | |
| 20260508220401 | 51 | 111 | 4.0 | 7.0 | 0.00 | 0.02 | 0.02 | 86 | |
| 20260508220301 | 51 | 111 | 4.0 | 9.0 | 0.00 | 0.02 | 0.02 | 86 | |
| 20260508220201 | 51 | 109 | 4.0 | 9.0 | 0.00 | 0.02 | 0.02 | 86 | |
| 20260508220001 | 51 | 108 | 5.0 | 9.0 | 0.00 | 0.02 | 0.02 | 86 | |
| 20260508215922 | 51 | 107 | 5.0 | 9.0 | 0.00 | 0.02 | 0.02 | 86 | |
| 20260508215802 | 51 | 106 | 5.0 | 9.0 | 0.00 | 0.02 | 0.02 | 86 | |
| 20260508215722 | 51 | 106 | 6.0 | 9.0 | 0.00 | 0.02 | 0.02 | 86 | |
| 20260508215601 | 51 | 105 | 6.0 | 9.0 | 0.00 | 0.02 | 0.02 | 86 | |
| 20260508215501 | 51 | 104 | 6.0 | 9.0 | 0.00 | 0.02 | 0.02 | 86 | |
| 20260508215401 | 51 | 104 | 6.0 | 9.0 | 0.00 | 0.02 | 0.02 | 86 | |
| 20260508215301 | 51 | 103 | 6.0 | 9.0 | 0.00 | 0.02 | 0.02 | 86 | |
| 20260508215201 | 51 | 103 | 6.0 | 9.0 | 0.00 | 0.02 | 0.02 | 86 | |
| 20260508215101 | 51 | 103 | 6.0 | 9.0 | 0.00 | 0.02 | 0.02 | 86 | |
| 20260508215022 | 51 | 103 | 6.0 | 9.0 | 0.00 | 0.02 | 0.02 | 86 | |
| 20260508214901 | 51 | 103 | 6.0 | 9.0 | 0.00 | 0.02 | 0.02 | 86 | |
| 20260508214801 | 51 | 103 | 6.0 | 9.0 | 0.00 | 0.02 | 0.02 | 86 | |
| 20260508214701 | 51 | 103 | 6.0 | 8.0 | 0.00 | 0.02 | 0.02 | 85 | |
| 20260508214601 | 51 | 103 | 6.0 | 8.0 | 0.00 | 0.02 | 0.02 | 85 | |
| 20260508214501 | 51 | 103 | 6.0 | 8.0 | 0.00 | 0.02 | 0.02 | 85 | |
| 20260508214401 | 51 | 103 | 6.0 | 8.0 | 0.00 | 0.02 | 0.02 | 85 | |
| 20260508214301 | 51 | 103 | 6.0 | 8.0 | 0.00 | 0.02 | 0.02 | 85 | |
| 20260508214202 | 51 | 103 | 6.0 | 8.0 | 0.00 | 0.02 | 0.02 | 85 | |
| 20260508214123 | 51 | 104 | 6.0 | 8.0 | 0.00 | 0.02 | 0.02 | 85 | |
| 20260508214001 | 51 | 103 | 6.0 | 9.0 | 0.00 | 0.02 | 0.02 | 85 | |
| 20260508213901 | 51 | 103 | 6.0 | 9.0 | 0.00 | 0.02 | 0.02 | 85 | |
| 20260508213801 | 51 | 104 | 6.0 | 9.0 | 0.00 | 0.02 | 0.02 | 85 | |
| 20260508213701 | 51 | 104 | 6.0 | 9.0 | 0.00 | 0.02 | 0.02 | 85 | |
| 20260508213601 | 51 | 104 | 6.0 | 9.0 | 0.00 | 0.02 | 0.02 | 85 | |
| 20260508213501 | 51 | 104 | 6.0 | 9.0 | 0.00 | 0.02 | 0.02 | 85 | |
| 20260508213401 | 51 | 104 | 6.0 | 9.0 | 0.00 | 0.02 | 0.02 | 84 | |
| 20260508213301 | 51 | 105 | 6.0 | 9.0 | 0.00 | 0.02 | 0.02 | 84 | |
| 20260508213201 | 51 | 104 | 6.0 | 9.0 | 0.00 | 0.02 | 0.02 | 84 | |
| 20260508213122 | 52 | 105 | 6.0 | 9.0 | 0.00 | 0.02 | 0.02 | 84 | |
| 20260508213001 | 51 | 104 | 6.0 | 9.0 | 0.00 | 0.02 | 0.02 | 84 | |
| 20260508212901 | 51 | 106 | 6.0 | 9.0 | 0.00 | 0.02 | 0.02 | 84 | |
| 20260508212801 | 52 | 104 | 6.0 | 10.0 | 0.00 | 0.02 | 0.02 | 84 | |
| 20260508212701 | 52 | 104 | 6.0 | 10.0 | 0.00 | 0.02 | 0.02 | 84 | |
| 20260508212601 | 52 | 104 | 6.0 | 10.0 | 0.00 | 0.02 | 0.02 | 84 | |
| 20260508212501 | 52 | 104 | 6.0 | 10.0 | 0.00 | 0.02 | 0.02 | 84 | |
| 20260508212401 | 52 | 105 | 7.0 | 10.0 | 0.00 | 0.02 | 0.02 | 84 | |
| 20260508212301 | 52 | 104 | 7.0 | 10.0 | 0.00 | 0.02 | 0.02 | 84 | |
| 20260508212222 | 52 | 105 | 7.0 | 10.0 | 0.00 | 0.02 | 0.02 | 84 | |
| 20260508212101 | 52 | 105 | 7.0 | 10.0 | 0.00 | 0.02 | 0.02 | 84 | |
| 20260508212001 | 52 | 104 | 7.0 | 10.0 | 0.00 | 0.02 | 0.02 | 84 | |
| 20260508211901 | 52 | 104 | 7.0 | 10.0 | 0.00 | 0.02 | 0.02 | 83 | |
| 20260508211801 | 52 | 104 | 7.0 | 10.0 | 0.00 | 0.02 | 0.02 | 83 | |
| 20260508211702 | 52 | 104 | 7.0 | 10.0 | 0.00 | 0.02 | 0.02 | 83 | |
| 20260508211601 | 52 | 103 | 7.0 | 10.0 | 0.00 | 0.02 | 0.02 | 83 | |
| 20260508211501 | 52 | 103 | 7.0 | 10.0 | 0.00 | 0.02 | 0.02 | 83 | |
| 20260508211401 | 52 | 103 | 7.0 | 11.0 | 0.00 | 0.02 | 0.02 | 83 | |
| 20260508211301 | 52 | 103 | 7.0 | 11.0 | 0.00 | 0.02 | 0.02 | 83 | |
| 20260508211201 | 52 | 102 | 7.0 | 11.0 | 0.00 | 0.02 | 0.02 | 83 | |
| 20260508211101 | 52 | 102 | 7.0 | 11.0 | 0.00 | 0.02 | 0.02 | 83 | |
| 20260508211022 | 52 | 103 | 7.0 | 11.0 | 0.00 | 0.02 | 0.02 | 83 | |
| 20260508210901 | 52 | 102 | 7.0 | 11.0 | 0.00 | 0.02 | 0.02 | 82 | |
| 20260508210801 | 52 | 103 | 7.0 | 11.0 | 0.00 | 0.02 | 0.02 | 82 | |
| 20260508210722 | 52 | 102 | 7.0 | 11.0 | 0.00 | 0.02 | 0.02 | 82 | |
| 20260508210602 | 52 | 102 | 7.0 | 11.0 | 0.00 | 0.02 | 0.02 | 82 | |
| 20260508210501 | 52 | 103 | 7.0 | 11.0 | 0.00 | 0.02 | 0.02 | 82 | |
| 20260508210402 | 52 | 102 | 7.0 | 10.0 | 0.00 | 0.02 | 0.02 | 82 | |
| 20260508210301 | 52 | 102 | 7.0 | 10.0 | 0.00 | 0.02 | 0.02 | 82 | |
| 20260508210201 | 52 | 101 | 7.0 | 10.0 | 0.00 | 0.02 | 0.02 | 82 | |
| 20260508210022 | 52 | 102 | 7.0 | 10.0 | 0.00 | 0.02 | 0.02 | 82 | |
| 20260508205901 | 52 | 103 | 6.0 | 10.0 | 0.00 | 0.02 | 0.02 | 82 | |
| 20260508205801 | 52 | 102 | 6.0 | 10.0 | 0.00 | 0.02 | 0.02 | 82 | |
| 20260508205701 | 52 | 103 | 6.0 | 9.0 | 0.00 | 0.02 | 0.02 | 82 | |
| 20260508205601 | 52 | 103 | 6.0 | 9.0 | 0.00 | 0.02 | 0.02 | 82 | |
| 20260508205523 | 52 | 103 | 6.0 | 9.0 | 0.00 | 0.02 | 0.02 | 81 | |
| 20260508205401 | 52 | 103 | 6.0 | 9.0 | 0.00 | 0.02 | 0.02 | 81 | |
| 20260508205301 | 52 | 103 | 6.0 | 9.0 | 0.00 | 0.02 | 0.02 | 81 | |
| 20260508205222 | 52 | 103 | 6.0 | 9.0 | 0.00 | 0.02 | 0.02 | 81 | |
| 20260508205101 | 52 | 101 | 6.0 | 9.0 | 0.00 | 0.02 | 0.02 | 81 | |
| 20260508205002 | 52 | 101 | 6.0 | 9.0 | 0.00 | 0.02 | 0.02 | 81 | |
| 20260508204922 | 52 | 101 | 6.0 | 9.0 | 0.00 | 0.02 | 0.02 | 81 | |
| 20260508204801 | 52 | 101 | 6.0 | 9.0 | 0.00 | 0.02 | 0.02 | 81 | |
| 20260508204701 | 52 | 100 | 6.0 | 9.0 | 0.00 | 0.02 | 0.02 | 81 | |
| 20260508204601 | 52 | 101 | 6.0 | 8.0 | 0.00 | 0.02 | 0.02 | 80 | |
| 20260508204501 | 52 | 101 | 6.0 | 8.0 | 0.00 | 0.02 | 0.02 | 80 | |
| 20260508204401 | 52 | 101 | 6.0 | 8.0 | 0.00 | 0.02 | 0.02 | 80 | |
| 20260508204301 | 52 | 102 | 6.0 | 8.0 | 0.00 | 0.02 | 0.02 | 80 | |
| 20260508204202 | 52 | 102 | 6.0 | 8.0 | 0.00 | 0.02 | 0.02 | 79 | |
| 20260508204101 | 52 | 103 | 6.0 | 8.0 | 0.00 | 0.02 | 0.02 | 79 | |
| 20260508204001 | 52 | 103 | 6.0 | 8.0 | 0.00 | 0.02 | 0.02 | 79 | |
| 20260508203901 | 52 | 103 | 6.0 | 8.0 | 0.00 | 0.02 | 0.02 | 79 | |
| 20260508203801 | 52 | 104 | 6.0 | 8.0 | 0.00 | 0.02 | 0.02 | 79 | |
| 20260508203722 | 52 | 104 | 6.0 | 9.0 | 0.00 | 0.02 | 0.02 | 79 | |
| 20260508203601 | 52 | 105 | 6.0 | 9.0 | 0.00 | 0.02 | 0.02 | 79 | |
| 20260508203502 | 52 | 105 | 5.0 | 9.0 | 0.00 | 0.02 | 0.02 | 78 | |
| 20260508203401 | 52 | 107 | 5.0 | 9.0 | 0.00 | 0.02 | 0.02 | 78 | |
| 20260508203301 | 52 | 108 | 5.0 | 9.0 | 0.00 | 0.02 | 0.02 | 78 | |
| 20260508203201 | 52 | 110 | 5.0 | 9.0 | 0.00 | 0.02 | 0.02 | 78 | |
| 20260508203122 | 52 | 111 | 5.0 | 9.0 | 0.00 | 0.02 | 0.02 | 78 | |
| 20260508203001 | 52 | 113 | 5.0 | 9.0 | 0.00 | 0.02 | 0.02 | 78 | |
| 20260508202901 | 52 | 115 | 5.0 | 9.0 | 0.00 | 0.02 | 0.02 | 77 | |
| 20260508202801 | 52 | 115 | 5.0 | 9.0 | 0.00 | 0.02 | 0.02 | 77 | |
| 20260508202701 | 52 | 116 | 4.0 | 8.0 | 0.00 | 0.02 | 0.02 | 77 | |
| 20260508202622 | 52 | 117 | 4.0 | 8.0 | 0.00 | 0.02 | 0.02 | 77 | |
| 20260508202522 | 52 | 118 | 4.0 | 8.0 | 0.00 | 0.02 | 0.02 | 77 | |
| 20260508202422 | 53 | 118 | 4.0 | 8.0 | 0.00 | 0.02 | 0.02 | 77 | |
| 20260508202301 | 53 | 119 | 4.0 | 8.0 | 0.00 | 0.02 | 0.02 | 76 | |
| 20260508202201 | 53 | 117 | 4.0 | 8.0 | 0.00 | 0.02 | 0.02 | 76 | |
| 20260508202101 | 53 | 117 | 4.0 | 7.0 | 0.00 | 0.02 | 0.02 | 76 | |
| 20260508202001 | 53 | 114 | 4.0 | 7.0 | 0.00 | 0.02 | 0.02 | 76 | |
| 20260508201901 | 53 | 111 | 4.0 | 8.0 | 0.00 | 0.02 | 0.02 | 76 | |
| 20260508201801 | 53 | 110 | 4.0 | 8.0 | 0.00 | 0.02 | 0.02 | 76 | |
| 20260508201701 | 53 | 109 | 5.0 | 8.0 | 0.00 | 0.02 | 0.02 | 76 | |
| 20260508201622 | 53 | 109 | 5.0 | 8.0 | 0.00 | 0.02 | 0.02 | 76 | |
| 20260508201522 | 53 | 108 | 5.0 | 9.0 | 0.00 | 0.02 | 0.02 | 76 | |
| 20260508201401 | 53 | 107 | 5.0 | 9.0 | 0.00 | 0.02 | 0.02 | 76 | |
| 20260508201301 | 53 | 106 | 6.0 | 9.0 | 0.00 | 0.02 | 0.02 | 76 | |
| 20260508201201 | 53 | 105 | 6.0 | 9.0 | 0.00 | 0.02 | 0.02 | 75 | |
| 20260508201102 | 53 | 105 | 6.0 | 9.0 | 0.00 | 0.02 | 0.02 | 75 | |
| 20260508201002 | 53 | 105 | 6.0 | 9.0 | 0.00 | 0.02 | 0.02 | 75 | |
| 20260508200901 | 53 | 105 | 6.0 | 9.0 | 0.00 | 0.02 | 0.02 | 75 | |
| 20260508200801 | 53 | 105 | 6.0 | 9.0 | 0.00 | 0.02 | 0.02 | 75 | |
| 20260508200701 | 53 | 105 | 6.0 | 9.0 | 0.00 | 0.02 | 0.02 | 75 | |
| 20260508200601 | 53 | 106 | 6.0 | 9.0 | 0.00 | 0.02 | 0.02 | 75 | |
| 20260508200501 | 53 | 105 | 6.0 | 9.0 | 0.00 | 0.02 | 0.02 | 74 | |
| 20260508200402 | 53 | 106 | 6.0 | 9.0 | 0.00 | 0.02 | 0.02 | 74 | |
| 20260508200301 | 53 | 104 | 6.0 | 9.0 | 0.00 | 0.02 | 0.02 | 74 | |
| 20260508200201 | 53 | 105 | 6.0 | 8.0 | 0.00 | 0.02 | 0.02 | 74 | |
| 20260508200001 | 53 | 106 | 5.0 | 8.0 | 0.00 | 0.02 | 0.02 | 73 | |
| 20260508195922 | 53 | 106 | 5.0 | 8.0 | 0.00 | 0.02 | 0.02 | 73 | |
| 20260508195801 | 53 | 105 | 5.0 | 8.0 | 0.00 | 0.02 | 0.02 | 73 | |
| 20260508195701 | 53 | 105 | 6.0 | 8.0 | 0.00 | 0.02 | 0.02 | 73 | |
| 20260508195601 | 53 | 104 | 6.0 | 8.0 | 0.00 | 0.02 | 0.02 | 73 | |
| 20260508195501 | 53 | 105 | 6.0 | 8.0 | 0.00 | 0.02 | 0.02 | 72 | |
| 20260508195401 | 53 | 105 | 6.0 | 8.0 | 0.00 | 0.02 | 0.02 | 72 | |
| 20260508195322 | 53 | 105 | 6.0 | 8.0 | 0.00 | 0.02 | 0.02 | 72 | |
| 20260508195201 | 53 | 106 | 6.0 | 9.0 | 0.00 | 0.02 | 0.02 | 72 | |
| 20260508195122 | 53 | 106 | 6.0 | 9.0 | 0.00 | 0.02 | 0.02 | 72 | |
| 20260508195002 | 53 | 107 | 6.0 | 9.0 | 0.00 | 0.02 | 0.02 | 72 | |
| 20260508194901 | 53 | 108 | 6.0 | 9.0 | 0.00 | 0.02 | 0.02 | 71 | |
| 20260508194801 | 53 | 107 | 6.0 | 9.0 | 0.00 | 0.02 | 0.02 | 71 | |
| 20260508194701 | 53 | 107 | 6.0 | 9.0 | 0.00 | 0.02 | 0.02 | 71 | |
| 20260508194601 | 54 | 108 | 5.0 | 9.0 | 0.00 | 0.02 | 0.02 | 71 | |
| 20260508194501 | 54 | 108 | 6.0 | 9.0 | 0.00 | 0.02 | 0.02 | 70 | |
| 20260508194401 | 54 | 107 | 6.0 | 9.0 | 0.00 | 0.02 | 0.02 | 70 | |
| 20260508194301 | 54 | 107 | 6.0 | 9.0 | 0.00 | 0.02 | 0.02 | 70 | |
| 20260508194201 | 54 | 107 | 6.0 | 8.0 | 0.00 | 0.02 | 0.02 | 70 | |
| 20260508194101 | 54 | 106 | 6.0 | 8.0 | 0.00 | 0.02 | 0.02 | 69 | |
| 20260508194001 | 54 | 105 | 6.0 | 8.0 | 0.00 | 0.02 | 0.02 | 69 | |
| 20260508193901 | 54 | 104 | 6.0 | 8.0 | 0.00 | 0.02 | 0.02 | 69 | |
| 20260508193801 | 54 | 105 | 6.0 | 8.0 | 0.00 | 0.02 | 0.02 | 69 | |
| 20260508193701 | 54 | 105 | 6.0 | 10.0 | 0.00 | 0.02 | 0.02 | 69 | |
| 20260508193601 | 54 | 105 | 6.0 | 10.0 | 0.00 | 0.02 | 0.02 | 68 | |
| 20260508193501 | 54 | 106 | 6.0 | 10.0 | 0.00 | 0.02 | 0.02 | 68 | |
| 20260508193401 | 54 | 106 | 6.0 | 10.0 | 0.00 | 0.02 | 0.02 | 68 | |
| 20260508193301 | 54 | 107 | 6.0 | 10.0 | 0.00 | 0.02 | 0.02 | 68 | |
| 20260508193201 | 54 | 108 | 6.0 | 10.0 | 0.00 | 0.02 | 0.02 | 68 | |
| 20260508193101 | 54 | 109 | 6.0 | 10.0 | 0.00 | 0.02 | 0.02 | 68 | |
| 20260508193001 | 54 | 109 | 6.0 | 10.0 | 0.00 | 0.02 | 0.02 | 68 | |
| 20260508192901 | 54 | 110 | 6.0 | 10.0 | 0.00 | 0.02 | 0.02 | 67 | |
| 20260508192801 | 54 | 111 | 6.0 | 10.0 | 0.00 | 0.02 | 0.02 | 67 | |
| 20260508192702 | 55 | 111 | 6.0 | 9.0 | 0.00 | 0.02 | 0.02 | 67 | |
| 20260508192622 | 55 | 112 | 6.0 | 9.0 | 0.00 | 0.02 | 0.02 | 67 | |
| 20260508192501 | 55 | 112 | 5.0 | 9.0 | 0.00 | 0.02 | 0.02 | 67 | |
| 20260508192401 | 55 | 113 | 5.0 | 9.0 | 0.00 | 0.02 | 0.02 | 67 | |
| 20260508192301 | 55 | 113 | 5.0 | 9.0 | 0.00 | 0.02 | 0.02 | 67 | |
| 20260508192201 | 55 | 114 | 5.0 | 9.0 | 0.00 | 0.02 | 0.02 | 67 | |
| 20260508192101 | 55 | 115 | 5.0 | 9.0 | 0.00 | 0.02 | 0.02 | 67 | |
| 20260508192001 | 55 | 117 | 5.0 | 9.0 | 0.00 | 0.02 | 0.02 | 67 | |
| 20260508191901 | 55 | 118 | 5.0 | 9.0 | 0.00 | 0.02 | 0.02 | 67 | |
| 20260508191822 | 55 | 119 | 5.0 | 9.0 | 0.00 | 0.02 | 0.02 | 67 | |
| 20260508191701 | 55 | 119 | 5.0 | 9.0 | 0.00 | 0.02 | 0.02 | 67 | |
| 20260508191601 | 55 | 120 | 5.0 | 9.0 | 0.00 | 0.02 | 0.02 | 67 | |
| 20260508191501 | 55 | 122 | 5.0 | 9.0 | 0.00 | 0.02 | 0.02 | 67 | |
| 20260508191423 | 55 | 122 | 5.0 | 9.0 | 0.00 | 0.02 | 0.02 | 67 | |
| 20260508191301 | 55 | 124 | 5.0 | 9.0 | 0.00 | 0.02 | 0.02 | 67 | |
| 20260508191201 | 55 | 124 | 5.0 | 9.0 | 0.00 | 0.02 | 0.02 | 67 | |
| 20260508191101 | 56 | 124 | 5.0 | 9.0 | 0.00 | 0.02 | 0.02 | 67 | |
| 20260508191001 | 56 | 123 | 5.0 | 10.0 | 0.00 | 0.02 | 0.02 | 67 | |
| 20260508190901 | 56 | 123 | 5.0 | 10.0 | 0.00 | 0.02 | 0.02 | 67 | |
| 20260508190801 | 56 | 124 | 5.0 | 10.0 | 0.00 | 0.02 | 0.02 | 67 | |
| 20260508190701 | 56 | 123 | 5.0 | 10.0 | 0.00 | 0.02 | 0.02 | 66 | |
| 20260508190622 | 56 | 122 | 5.0 | 10.0 | 0.00 | 0.02 | 0.02 | 66 | |
| 20260508190522 | 56 | 121 | 5.0 | 10.0 | 0.00 | 0.02 | 0.02 | 67 | |
| 20260508190401 | 56 | 120 | 5.0 | 10.0 | 0.00 | 0.02 | 0.02 | 66 | |
| 20260508190322 | 56 | 119 | 5.0 | 10.0 | 0.00 | 0.02 | 0.02 | 66 | |
| 20260508190201 | 56 | 119 | 5.0 | 10.0 | 0.00 | 0.02 | 0.02 | 66 | |
| 20260508190001 | 56 | 118 | 5.0 | 10.0 | 0.00 | 0.02 | 0.02 | 66 | |
| 20260508185922 | 56 | 119 | 5.0 | 10.0 | 0.00 | 0.02 | 0.02 | 66 |